GEFSSGP_500_meanwind_000.txt.gz
Wind_Speed
9 10 11 11 12 14 16 18 19 18 18 19 21 21 21 22 22 23 24 23 23 23 23 22 21 20 19 18 16 15 15 16 17 17 17 17 17 18 18 19 19 18 17 16 17 17 15 13 14
8 8 8 10 11 13 15 16 17 17 19 21 21 21 22 22 23 24 24 24 24 24 24 23 21 19 18 17 17 17 17 17 18 19 19 19 19 20 20 21 21 20 19 18 18 18 17 14 14
8 7 8 10 12 14 15 16 18 20 20 19 19 19 20 21 23 24 24 24 25 25 24 21 18 17 18 18 19 19 19 19 20 20 21 22 22 22 22 22 22 22 21 20 20 19 17 15 14
5 6 7 10 13 15 16 17 18 18 18 17 17 16 18 21 22 23 24 24 25 24 22 20 20 21 22 23 23 23 23 23 23 23 23 23 23 23 23 23 23 23 22 21 21 20 19 17 15
8 6 7 9 11 13 14 15 17 18 16 16 16 17 19 21 22 23 24 24 23 22 22 23 24 25 25 25 25 25 25 26 25 25 25 25 24 24 24 24 24 24 24 24 23 22 21 19 16
11 11 11 12 12 13 14 15 17 17 17 17 17 17 19 20 21 22 22 22 23 24 24 25 25 26 26 26 26 27 27 28 28 27 27 27 27 27 27 27 27 27 27 26 24 23 22 20 18
12 12 13 14 14 14 15 16 17 18 18 18 19 19 22 22 23 24 24 25 25 25 26 27 27 28 28 29 29 30 30 29 29 29 28 29 28 28 28 28 28 27 26 25 25 23 22 21 20
15 15 16 16 15 16 17 18 20 21 22 22 23 23 25 26 26 26 27 27 27 27 27 28 29 29 30 30 30 30 30 29 29 29 30 30 29 29 28 28 27 26 25 25 24 24 23 23 23
16 17 20 18 18 19 19 21 22 23 23 24 26 27 27 26 26 27 27 26 27 28 28 28 28 29 29 28 28 28 28 28 28 30 31 31 31 30 29 28 28 28 27 26 26 27 27 27 27
14 16 18 17 18 18 19 21 21 21 21 24 26 25 22 22 23 23 24 25 25 26 26 25 25 26 27 27 27 26 26 26 27 28 29 29 30 31 31 30 30 30 30 30 31 32 32 32 33
13 15 15 16 18 18 19 20 20 19 20 26 24 20 20 20 20 20 21 22 23 24 25 25 26 27 28 28 29 29 30 30 30 31 32 32 33 34 35 35 35 35 36 36 37 37 38 39 39
13 16 16 18 18 16 16 18 20 19 23 24 20 20 22 22 21 22 23 24 25 26 27 28 28 29 29 30 30 31 33 35 36 37 38 39 40 41 41 42 42 43 43 43 43 43 44 44 45
11 14 14 16 17 15 14 15 17 20 23 23 22 23 24 24 24 24 25 25 25 26 26 27 28 29 29 30 31 32 32 33 34 36 37 38 40 42 43 44 44 45 45 46 46 47 48 48 48
13 15 17 17 18 16 15 17 20 23 26 27 27 27 27 27 26 26 26 25 26 26 28 30 32 34 35 36 36 36 36 36 37 37 37 38 39 40 41 43 44 44 44 44 45 46 48 50 50
16 18 21 21 23 22 22 23 27 27 27 29 30 28 27 28 28 28 28 29 29 30 32 34 35 38 40 41 42 42 43 43 43 43 43 44 43 43 44 46 47 47 46 45 46 47 49 51 51
21 21 23 25 26 25 24 23 31 31 27 29 30 29 29 30 30 30 31 32 33 34 37 39 40 42 44 45 46 47 48 48 49 49 50 50 50 50 50 50 51 50 49 49 50 49 50 51 51
24 24 26 28 28 28 27 25 31 31 28 27 28 29 29 31 32 33 35 37 39 41 43 45 47 48 49 50 51 51 52 52 52 53 53 53 53 53 55 55 54 52 51 52 52 51 51 51 51
24 24 25 27 26 25 24 23 27 27 26 26 27 29 31 34 37 41 43 44 45 46 47 49 50 52 53 55 56 57 56 56 56 55 56 55 55 55 56 57 57 55 54 52 51 51 51 51 52
19 19 20 22 22 19 19 22 25 25 28 30 32 36 39 42 44 45 45 46 47 48 49 50 52 54 56 57 58 59 59 59 59 58 58 57 56 56 56 55 55 54 52 50 49 51 53 52 53
18 17 18 19 20 21 24 28 30 31 33 36 40 45 47 46 46 47 48 49 50 51 52 52 53 54 56 57 59 60 62 62 61 60 59 58 57 57 56 54 53 51 50 49 50 52 54 54 54
17 19 20 23 25 27 31 36 38 39 42 46 50 52 53 54 53 51 50 50 51 52 52 53 53 55 56 58 60 62 64 64 64 62 61 60 58 57 56 53 51 49 50 50 50 52 53 52 52
21 24 26 29 32 35 38 43 45 48 50 53 55 55 57 59 59 59 57 56 56 56 56 56 56 56 56 56 58 61 63 63 63 63 62 61 59 56 54 53 52 52 51 51 52 53 53 54 53
26 29 32 35 38 41 43 45 49 52 56 58 58 59 60 61 61 60 60 62 63 64 65 65 66 64 63 61 60 61 63 64 64 63 62 61 58 56 54 54 55 52 51 51 52 53 55 56 55
30 33 35 37 40 42 45 49 54 56 57 58 58 58 59 60 62 64 67 69 72 74 74 75 76 74 72 68 63 63 64 64 63 61 60 58 56 54 53 53 54 52 52 52 52 53 56 58 57
35 37 39 41 44 47 50 53 54 54 55 57 59 62 64 66 70 73 76 79 80 81 81 80 80 77 73 68 63 63 63 63 62 60 57 55 53 52 51 51 51 49 49 49 50 52 53 56 55
40 41 43 45 47 49 51 52 54 58 62 64 67 70 72 75 80 84 85 86 86 85 84 80 75 70 67 64 59 57 57 59 59 55 54 50 48 48 48 50 46 47 48 49 49 50 50 51 56
44 45 48 49 49 48 51 59 64 66 68 69 73 76 79 82 86 88 88 87 85 81 76 72 68 63 61 59 55 52 52 53 51 48 50 48 48 48 47 47 45 47 48 49 51 51 50 49 52
47 48 48 49 51 54 56 63 68 69 70 75 79 81 84 87 87 84 81 78 72 66 61 59 60 58 55 53 53 55 48 53 53 49 45 46 47 46 44 47 47 43 45 48 48 49 49 49 49
47 47 49 53 56 60 63 63 67 70 75 79 80 82 83 81 75 70 66 61 56 52 51 52 54 56 55 52 52 57 54 52 51 52 45 43 44 46 48 45 45 45 43 41 41 43 47 46 44
50 49 50 54 58 62 65 66 70 74 78 79 77 75 71 66 61 57 59 62 62 59 56 53 52 53 53 53 53 56 53 54 59 53 46 42 40 41 44 44 43 41 41 41 40 41 42 40 39

GEFSSGP_500_meanwind_006.txt.gz
Wind_Speed
9 9 10 11 11 12 14 18 18 18 21 19 19 21 22 25 24 24 24 24 24 25 27 28 27 27 26 27 27 26 23 20 18 18 18 19 19 19 19 19 19 19 19 18 18 17 16 16 15
7 7 8 10 10 10 12 15 17 18 17 19 20 21 23 26 23 24 25 26 27 27 28 28 28 28 27 27 27 24 22 20 20 20 21 21 21 21 21 22 22 22 22 21 20 19 18 17 16
7 7 7 10 13 12 17 18 16 14 17 18 19 20 23 24 24 25 26 28 28 28 28 29 29 28 26 25 24 21 22 22 23 24 23 23 23 23 23 23 23 23 23 22 22 20 19 18 17
5 5 8 10 12 15 15 13 13 15 15 16 18 21 23 24 25 25 26 27 28 29 29 30 28 27 26 24 23 23 25 26 27 27 26 25 24 24 24 24 23 23 23 23 22 21 20 19 18
5 5 7 9 10 11 13 12 13 15 15 16 18 20 25 23 26 26 26 28 29 31 30 29 29 27 26 26 26 27 27 28 27 27 27 27 25 24 24 24 24 24 23 23 23 23 22 22 21
7 8 8 9 10 11 13 13 16 17 17 19 19 21 27 26 27 27 28 29 30 31 30 27 28 27 27 28 29 29 29 29 29 29 28 28 27 26 26 26 25 25 25 24 24 25 25 24 24
8 8 10 11 11 12 13 14 17 17 20 20 19 23 30 30 26 28 29 31 31 31 32 31 29 29 29 29 30 30 31 31 30 31 30 30 29 28 27 27 26 26 26 26 26 25 25 25 25
12 12 13 14 14 15 15 17 18 19 21 22 23 25 32 32 27 29 30 32 33 33 33 33 31 29 29 30 30 31 31 30 29 29 29 29 28 28 28 28 28 28 28 28 27 26 25 25 25
12 14 16 16 16 17 17 19 21 22 24 26 27 29 33 32 31 31 32 32 33 32 32 33 32 30 29 28 27 28 27 26 25 25 25 26 26 27 28 29 28 30 30 29 29 28 27 26 26
11 14 15 15 16 17 18 20 23 24 25 29 30 30 33 31 30 31 30 30 30 28 27 29 29 28 27 25 24 23 24 25 26 25 25 26 27 27 28 28 29 29 29 30 30 30 29 28 28
10 12 13 13 14 16 18 20 22 24 26 30 29 29 31 30 27 27 28 28 28 26 25 26 26 25 24 24 24 23 24 24 26 26 27 28 29 30 31 31 32 32 32 32 33 33 33 33 33
9 10 11 11 12 13 15 17 19 23 25 26 26 27 27 27 25 25 26 28 28 27 27 28 28 27 26 26 26 25 25 25 26 27 27 28 29 31 31 32 33 35 36 38 38 38 39 39 39
11 13 14 14 14 15 16 18 21 24 23 24 26 27 26 26 27 29 28 29 30 30 30 31 30 29 29 29 29 30 30 30 31 32 32 32 33 33 34 34 35 35 36 37 38 40 42 43 44
16 17 18 18 18 18 20 24 27 26 24 27 29 29 29 29 29 30 29 29 31 32 32 32 33 33 33 34 34 35 35 36 36 37 38 38 39 39 39 39 38 38 38 39 39 39 40 41 42
19 20 23 21 20 20 23 28 31 27 27 29 30 30 30 30 29 29 29 30 31 32 33 34 36 37 38 39 39 40 40 41 42 43 45 46 46 46 46 45 44 44 43 43 43 43 43 44 44
21 23 26 23 19 21 23 29 31 29 28 28 28 28 27 28 28 29 29 30 32 34 36 38 40 42 44 46 47 48 48 48 49 50 51 52 52 52 52 51 50 50 50 49 49 49 49 49 49
23 22 22 26 21 19 23 27 26 24 25 25 26 26 26 27 29 30 32 35 38 40 43 45 47 48 50 51 53 53 54 54 54 54 55 56 57 57 57 56 56 56 55 55 54 54 54 54 53
20 22 22 23 22 20 21 27 27 23 25 28 30 31 32 34 36 37 39 42 44 45 47 48 50 51 52 54 56 57 57 58 58 59 59 60 60 61 60 60 60 59 59 59 59 59 59 58 57
17 18 19 21 20 21 23 30 33 30 32 35 36 36 38 39 41 42 43 45 46 48 49 50 50 51 53 55 56 57 58 59 60 61 62 63 63 62 62 62 61 61 61 61 61 61 61 61 61
19 20 21 24 26 27 27 31 35 35 35 36 38 40 41 41 42 43 45 46 47 49 52 53 52 52 53 54 55 56 57 58 59 59 60 61 62 62 62 62 62 61 60 60 61 62 62 63 63
22 23 25 27 29 31 34 35 37 37 37 38 41 43 43 43 44 46 48 50 51 53 55 57 59 60 60 61 62 63 63 63 64 65 65 64 64 63 63 63 62 61 61 61 61 62 63 63 63
26 28 30 32 35 36 38 40 41 42 41 42 43 45 45 47 50 53 56 57 58 60 62 65 67 68 70 71 72 73 73 72 71 71 72 71 70 69 69 68 66 64 63 63 63 63 63 63 63
30 32 34 36 37 38 39 40 43 46 47 47 47 50 53 56 60 63 66 67 68 70 72 74 75 76 78 79 80 80 79 78 77 76 76 76 75 73 72 70 68 67 65 64 63 63 63 63 63
34 36 38 40 41 43 44 45 50 52 53 56 58 61 64 67 70 73 74 76 77 79 81 82 83 84 84 84 84 83 81 78 77 75 73 74 76 75 71 69 68 67 65 63 62 62 62 62 63
37 40 42 43 44 43 45 49 53 51 59 64 67 70 72 74 75 76 78 80 81 83 85 85 84 83 82 82 80 78 75 72 70 67 66 66 67 67 66 65 65 64 63 61 60 61 61 62 62
38 40 42 44 45 47 50 53 57 60 64 69 72 75 76 75 76 79 81 83 84 84 84 83 81 78 75 71 68 65 62 60 58 56 56 57 58 57 58 59 60 61 59 57 56 58 59 60 60
41 41 42 44 47 52 55 58 61 63 69 74 77 78 78 78 78 80 81 81 81 80 77 75 71 69 66 63 61 60 61 61 60 58 55 55 55 56 57 56 58 59 56 53 54 56 57 59 60
43 44 46 48 52 55 59 61 61 66 75 80 79 78 79 79 79 79 79 78 74 69 64 61 61 62 64 66 66 66 66 65 63 60 57 55 52 54 54 53 54 54 51 50 49 49 49 48 49
45 47 50 53 56 60 64 64 64 71 76 78 79 78 77 78 77 75 72 66 59 55 55 57 59 61 62 62 60 59 57 56 55 54 54 53 52 52 53 51 50 50 48 45 43 41 41 43 44
46 50 54 58 60 62 65 70 64 71 75 76 74 71 71 70 68 64 57 51 49 50 51 52 54 54 50 46 42 40 38 39 41 44 47 48 47 48 50 50 47 46 45 41 38 37 39 41 44

GEFSSGP_500_meanwind_012.txt.gz
Wind_Speed
9 10 12 13 16 18 19 19 19 20 20 20 22 23 24 25 24 23 22 21 21 21 22 22 23 23 24 24 24 24 25 25 24 24 24 22 20 19 19 19 20 21 21 21 21 19 18 19 18
8 8 11 13 15 18 19 20 19 17 17 18 20 23 22 22 23 24 23 21 21 21 22 23 24 25 25 25 24 25 25 25 24 23 23 23 22 21 20 21 21 22 23 23 23 22 21 21 21
5 7 10 11 14 16 18 17 16 15 16 16 17 20 21 20 20 22 24 22 22 24 25 26 26 26 26 25 25 25 25 25 24 23 23 23 23 23 23 23 24 24 24 24 24 24 23 23 22
3 5 7 9 11 13 14 11 12 13 12 12 14 17 18 19 18 20 23 23 23 24 26 27 27 27 27 27 26 26 26 26 26 25 25 25 25 25 25 25 25 25 25 25 25 25 24 24 23
3 3 5 6 7 10 9 8 10 9 7 9 12 15 17 19 19 19 20 22 22 23 25 27 27 27 28 28 28 28 28 28 28 28 28 27 27 27 26 26 26 26 26 26 25 25 25 25 24
2 3 6 7 7 7 6 6 9 10 10 11 15 18 21 21 21 20 21 23 24 25 25 26 28 29 29 30 30 30 30 31 31 31 31 30 30 29 28 28 27 27 27 27 27 27 26 26 26
5 6 7 9 9 6 5 7 9 12 15 16 18 21 23 23 22 22 24 27 29 29 29 29 30 32 33 33 33 33 33 34 33 33 33 32 32 31 30 29 29 29 29 29 29 29 28 28 28
7 8 9 10 10 9 10 11 13 16 19 20 21 23 25 26 26 26 28 31 32 32 32 32 33 33 33 34 35 35 35 35 35 35 34 33 32 31 30 30 29 29 29 30 30 29 29 29 29
7 8 8 10 12 13 14 16 17 20 22 23 24 25 27 28 29 29 30 32 33 32 31 31 32 31 30 30 32 34 35 35 35 35 34 32 31 30 29 29 28 29 29 29 29 29 30 29 29
7 7 7 8 11 13 15 17 18 19 21 22 24 24 25 26 26 26 27 28 30 31 30 29 30 30 29 28 29 31 33 34 35 35 34 32 31 30 29 29 28 28 28 28 28 29 29 29 29
7 7 7 7 10 13 16 16 16 16 16 17 19 21 23 24 26 26 26 27 28 29 29 29 30 31 31 31 30 31 32 34 35 35 35 34 34 33 32 32 31 31 30 30 30 30 30 30 29
9 10 10 10 13 16 18 18 18 17 17 16 17 20 23 26 28 30 32 32 32 32 32 32 33 34 35 35 34 33 33 35 37 38 38 38 37 36 36 36 35 34 34 34 35 35 34 34 33
13 14 14 15 17 20 21 21 21 20 20 20 21 23 25 27 30 32 34 36 36 36 35 35 36 37 38 38 38 38 37 37 38 39 39 40 40 40 39 39 38 38 38 37 37 37 37 37 37
15 15 16 17 19 20 22 22 20 19 19 21 22 23 24 26 27 30 32 34 36 36 37 37 38 40 41 41 41 41 41 41 41 41 41 42 42 43 43 43 43 42 42 41 40 40 40 40 39
14 14 14 15 17 18 19 18 17 17 17 19 21 23 24 25 27 29 31 34 36 37 38 38 39 41 42 43 43 43 43 44 44 44 45 46 46 46 46 47 47 47 46 46 45 44 44 44 44
13 13 12 12 14 15 16 16 16 17 19 21 24 27 29 31 32 34 35 37 39 41 43 44 44 45 46 47 49 50 50 50 51 51 51 51 51 52 52 52 52 52 52 51 51 50 50 49 49
14 14 13 13 15 17 19 20 20 20 22 25 28 31 33 35 37 38 39 41 42 44 46 47 49 49 50 51 53 54 55 55 55 56 57 57 57 58 58 58 58 58 57 57 56 56 56 55 54
14 15 16 17 18 22 24 26 26 26 28 30 33 34 36 38 40 41 42 43 44 46 47 49 50 51 52 52 52 53 56 57 58 58 59 60 61 61 62 63 63 63 63 62 62 62 61 61 60
14 17 19 21 22 25 28 29 30 30 31 33 34 36 38 40 43 44 45 46 47 48 50 52 53 55 56 56 56 57 58 60 61 62 63 63 62 62 62 63 65 66 67 67 67 66 66 66 65
16 18 21 23 25 27 30 31 31 33 35 36 38 41 43 45 48 50 51 51 52 54 57 59 62 63 64 65 65 64 64 65 66 67 67 68 67 67 66 65 66 67 67 68 68 68 67 68 68
19 21 23 24 25 29 32 33 35 37 40 42 45 48 51 54 56 58 59 61 62 63 64 65 67 69 71 71 71 71 70 70 72 72 72 73 73 73 72 72 71 70 71 71 71 70 69 68 68
21 23 26 28 29 31 35 38 40 44 46 50 53 56 59 62 66 68 69 70 70 70 70 70 70 72 74 76 78 78 77 76 77 77 77 77 78 78 78 78 77 76 76 76 76 75 74 72 70
22 25 28 31 33 34 38 43 46 49 52 55 58 61 65 68 72 75 77 77 76 75 74 74 74 76 78 81 82 83 82 81 80 80 80 79 79 79 79 80 81 81 80 80 81 81 80 78 76
24 27 31 35 38 40 44 49 53 55 59 61 64 68 72 74 76 78 79 80 80 79 79 79 80 81 82 82 82 81 79 77 75 75 76 76 76 76 77 80 81 82 81 82 82 83 83 82 80
27 30 35 40 43 46 50 55 59 62 65 69 72 75 76 77 77 78 79 80 81 82 83 83 82 80 79 76 71 67 63 61 60 61 63 65 66 68 70 73 76 78 79 79 80 81 82 82 81
30 34 39 43 47 51 55 60 64 68 72 75 77 77 76 76 77 78 80 82 84 84 84 83 79 73 66 59 52 48 47 47 49 52 55 58 61 63 65 67 69 69 70 70 69 72 74 75 76
34 39 43 48 53 58 61 64 69 73 77 77 75 73 72 73 75 78 81 83 83 82 79 75 67 58 50 42 38 38 40 42 44 46 47 49 52 55 59 63 65 63 61 61 60 61 63 64 65
39 44 49 54 59 62 64 69 73 77 74 71 68 67 69 71 73 73 72 70 66 63 57 51 46 41 36 33 33 35 37 39 39 39 41 43 44 44 45 51 58 59 57 55 54 53 54 54 54
42 47 52 57 60 65 69 73 75 72 68 65 64 66 66 65 61 57 53 53 52 47 41 36 32 30 29 30 31 33 35 36 37 39 41 42 41 39 37 38 44 52 54 53 52 50 49 49 48
45 50 55 59 62 66 71 74 72 67 63 62 62 61 59 55 52 51 50 48 44 39 33 28 26 26 26 28 29 32 34 35 36 37 38 38 35 32 30 29 32 40 48 51 52 50 47 46 46

GEFSSGP_500_meanwind_018.txt.gz
Wind_Speed
10 11 12 13 14 14 15 15 15 16 17 17 18 19 20 21 21 22 22 22 23 24 24 25 25 26 26 26 26 26 25 25 25 25 24 24 23 23 22 23 23 23 22 22 22 22 21 21 20
8 9 10 11 12 13 14 14 15 15 16 15 17 19 21 22 22 22 22 22 22 23 24 25 26 26 27 28 28 28 28 27 27 27 26 26 25 25 25 25 26 26 25 24 24 24 24 24 24
8 7 8 8 9 9 10 10 12 14 14 14 15 17 18 20 21 21 21 21 21 21 23 24 25 27 28 29 29 29 29 29 28 28 28 27 27 27 27 27 27 27 27 26 26 26 27 27 27
7 6 5 5 5 6 7 8 11 13 12 12 12 12 13 15 17 18 19 20 20 21 22 24 25 27 28 29 29 30 30 29 29 29 29 29 29 29 29 29 29 29 29 28 28 29 29 29 29
6 6 5 4 5 6 7 8 10 10 9 10 11 11 11 12 13 15 17 19 20 21 22 24 25 27 28 29 30 30 31 31 32 31 31 32 31 31 31 31 31 31 31 31 30 30 30 30 31
6 7 6 6 7 8 8 9 10 9 9 10 12 13 14 14 15 16 18 21 23 24 25 27 28 29 31 32 32 33 34 34 35 35 35 35 34 34 34 34 33 33 33 33 32 32 31 31 31
6 6 6 6 6 8 11 12 13 13 13 14 15 17 18 19 20 21 23 25 27 29 30 31 32 33 34 35 36 36 37 37 38 38 38 38 38 37 37 37 36 35 35 35 35 35 34 33 32
7 7 7 7 8 10 12 13 14 15 16 17 18 20 21 23 25 25 26 28 29 30 32 33 34 34 36 37 38 38 38 38 38 38 39 40 40 40 40 40 39 38 38 38 38 37 37 36 34
8 8 8 9 10 11 12 12 13 14 16 18 19 21 22 24 26 28 29 29 30 31 31 32 33 33 34 36 37 38 38 38 37 38 38 39 40 41 41 42 41 41 41 41 41 40 40 38 37
9 9 10 11 11 12 12 13 13 13 15 17 19 22 24 26 28 29 31 31 32 32 32 33 33 34 35 37 38 38 39 39 40 39 39 39 39 40 41 42 42 43 43 42 42 42 42 41 40
10 10 12 12 12 12 13 14 15 16 17 19 21 24 26 28 29 31 33 34 34 35 35 35 36 37 38 39 41 42 42 43 43 43 43 42 42 42 41 41 42 42 42 43 43 43 43 42 42
9 10 11 12 13 13 14 14 16 17 18 20 21 23 25 28 29 31 32 34 35 36 36 37 38 39 40 41 42 44 45 46 46 47 47 46 46 46 45 44 43 43 42 43 44 44 43 43 43
10 10 11 12 12 12 12 13 14 16 18 20 22 24 27 29 32 34 36 37 39 40 41 42 43 44 44 45 45 46 46 47 48 49 50 50 50 49 49 48 47 46 44 44 44 45 45 45 45
10 10 10 11 12 12 14 15 16 18 20 23 25 28 31 33 36 38 40 42 43 44 46 47 48 48 49 50 51 52 52 51 51 51 52 52 53 53 52 52 51 50 49 48 47 47 48 48 47
10 11 11 12 13 14 15 16 19 21 23 26 28 30 33 36 38 41 43 45 47 48 50 51 52 53 54 54 55 56 57 57 57 57 56 56 55 55 55 55 54 53 53 52 51 51 50 50 50
10 11 12 13 15 16 18 19 21 23 25 28 30 33 36 39 41 44 46 49 51 52 54 56 57 58 59 60 60 60 61 61 62 61 61 61 61 60 60 59 58 57 56 56 55 55 54 53 53
10 12 14 15 17 19 21 23 25 27 30 32 36 39 42 45 48 51 54 56 57 58 60 61 63 64 64 65 65 65 65 65 65 65 65 64 64 64 65 64 64 63 61 60 59 59 58 58 57
11 13 15 17 19 22 25 27 30 33 36 39 42 46 49 53 56 59 61 63 65 66 67 68 68 69 69 69 69 69 69 68 68 68 68 68 67 66 67 67 67 67 66 65 64 63 62 61 61
12 14 15 18 21 25 28 32 35 39 42 46 49 53 56 60 63 66 69 71 73 75 76 76 75 75 74 74 74 74 74 74 73 73 72 72 71 70 70 70 69 69 69 68 68 68 67 66 65
12 14 17 19 23 27 32 37 41 45 48 51 56 59 62 66 69 73 76 79 81 83 83 82 82 81 80 80 79 79 80 80 80 79 78 77 76 76 76 76 75 75 74 73 72 72 71 70 68
14 17 21 24 28 32 38 44 47 51 54 58 62 65 68 72 76 80 83 85 86 87 87 88 87 87 86 85 85 84 83 84 85 85 84 83 83 82 82 82 82 82 81 79 78 77 77 75 73
18 21 25 29 34 38 43 49 51 55 60 63 66 70 74 79 82 84 85 85 86 86 86 84 82 81 80 79 80 81 82 83 85 86 87 87 87 87 87 87 87 88 87 87 85 83 82 81 79
22 25 29 33 38 43 48 53 56 60 63 67 71 75 79 82 83 82 82 82 81 77 73 68 65 63 62 61 61 62 63 65 68 74 79 82 84 86 87 88 89 90 91 91 90 89 87 86 84
25 29 33 36 41 46 51 56 61 64 68 72 75 78 80 80 79 78 76 73 67 60 56 54 52 51 51 51 50 49 46 43 43 46 52 59 66 70 74 78 81 84 86 89 90 90 90 89 88
29 32 35 40 44 49 54 59 63 68 73 76 78 79 79 77 74 70 66 58 51 50 49 48 49 48 47 46 45 43 40 35 31 28 29 34 40 46 52 56 60 65 69 74 78 82 86 88 89
31 34 38 43 48 52 56 60 66 72 74 77 78 78 75 70 65 61 55 49 47 46 46 47 47 47 46 45 43 41 39 34 29 25 23 24 26 30 35 39 42 46 50 54 60 66 72 78 82
33 37 41 46 51 55 59 63 70 73 75 77 76 73 68 62 58 54 50 47 44 44 46 47 47 47 46 45 43 41 38 34 31 28 25 25 25 26 29 31 34 37 40 44 48 53 58 65 71
35 40 45 50 54 59 63 69 72 74 75 76 74 68 61 56 53 50 47 44 43 44 46 48 49 48 48 46 44 42 39 35 32 30 28 28 28 28 29 31 33 35 38 40 43 46 51 56 61
37 42 48 52 56 62 67 70 72 74 76 76 71 62 55 51 49 48 46 45 45 46 49 50 50 50 49 48 46 44 42 39 37 34 32 32 31 31 32 33 34 36 37 38 38 40 43 47 50
38 44 50 54 59 63 68 72 74 75 76 74 66 58 51 49 49 49 48 48 48 50 52 53 54 54 53 52 50 48 46 44 42 40 38 37 36 36 35 35 36 36 36 35 35 35 37 39 40

GEFSSGP_500_meanwind_024.txt.gz
Wind_Speed
2 1 2 3 4 5 6 8 10 11 12 12 13 15 16 18 19 20 20 20 21 22 22 23 25 27 28 30 31 31 32 32 32 31 31 30 29 28 27 26 25 25 25 25 25 26 26 25 24
4 3 3 3 1 2 3 4 6 7 9 10 12 13 15 16 17 18 18 18 18 19 20 22 24 26 28 29 30 32 33 34 34 34 33 33 32 31 31 30 28 28 27 28 28 29 29 29 28
6 6 6 5 3 1 0 1 2 5 7 9 11 12 12 13 13 14 14 15 16 17 19 21 23 24 26 28 29 31 32 34 35 35 35 35 34 34 33 32 31 30 30 30 31 32 32 32 32
9 8 7 6 5 5 4 4 5 5 7 8 9 10 11 11 12 13 14 15 17 18 20 22 24 25 27 28 30 31 32 34 35 36 36 36 36 36 35 34 34 33 33 33 33 34 34 35 35
9 9 7 6 6 6 7 7 6 6 6 7 9 10 11 13 14 16 17 19 20 22 23 25 27 28 30 31 32 33 34 35 36 37 38 38 38 37 37 37 37 36 36 35 35 36 36 36 37
9 7 6 6 6 7 7 7 7 7 8 9 10 12 13 15 17 18 20 22 24 25 27 29 31 33 34 36 37 38 39 40 40 40 41 41 41 41 40 40 40 40 39 39 39 39 38 38 38
8 7 8 8 8 8 8 8 8 9 10 11 12 13 15 16 18 19 21 22 24 25 27 29 30 32 34 36 37 39 40 42 43 43 44 45 45 45 45 44 44 43 43 42 42 42 42 41 41
10 9 9 9 9 8 8 9 10 12 13 14 15 16 17 18 19 21 22 24 25 27 29 30 32 34 36 38 39 40 41 42 42 43 44 45 46 47 48 48 48 47 47 46 46 45 45 44 43
10 9 8 8 8 8 8 9 10 12 13 15 16 17 18 19 20 22 24 25 27 29 31 33 34 36 38 40 41 43 44 45 46 46 46 46 46 46 47 48 49 50 50 49 49 48 48 47 46
9 8 8 8 8 8 8 9 10 11 12 14 15 17 19 21 23 25 27 30 32 34 36 38 40 42 43 45 46 47 47 48 49 50 50 50 50 49 48 48 49 49 50 51 51 51 50 50 49
8 9 9 9 10 10 10 10 10 11 12 15 17 19 22 24 27 30 32 35 37 39 41 44 46 47 49 50 51 52 53 53 54 54 53 53 53 53 52 52 51 50 50 51 52 52 52 52 52
8 9 9 10 10 11 11 12 12 13 15 18 21 23 26 29 32 34 37 39 42 44 47 49 52 53 55 56 56 57 57 58 58 59 59 58 58 57 56 55 55 54 53 52 52 53 53 54 54
9 9 9 10 10 11 12 13 14 16 19 22 25 27 30 33 36 39 42 45 48 51 55 58 60 62 63 64 65 66 65 65 64 64 64 63 62 61 61 60 59 58 57 56 56 55 55 55 55
8 8 9 10 11 12 14 15 17 19 22 25 29 32 35 39 42 46 49 53 56 59 62 65 67 69 70 72 73 74 74 74 73 72 71 70 69 67 65 64 64 63 62 61 60 60 59 58 57
7 7 8 9 11 12 14 16 19 22 26 30 34 38 41 45 49 53 57 60 63 66 69 71 74 76 78 80 81 82 83 82 82 80 79 77 76 74 71 69 67 67 66 66 65 64 64 62 61
5 7 8 10 11 13 16 18 22 26 31 35 40 44 48 53 56 60 63 67 70 73 76 79 80 82 84 86 87 88 87 87 86 84 83 82 81 80 79 76 73 71 70 69 69 68 68 67 66
5 7 9 11 14 17 21 24 27 31 36 40 45 50 54 58 62 65 68 71 74 77 79 81 82 83 85 86 87 87 86 84 83 81 80 80 82 82 82 81 78 76 74 73 72 71 71 70 69
7 9 12 15 18 22 25 28 31 35 39 44 49 54 59 63 66 69 72 75 77 79 80 81 82 83 82 81 78 75 73 70 69 68 67 69 73 78 83 84 83 81 78 76 75 74 73 72 72
11 13 16 18 22 25 28 31 33 38 43 48 53 58 62 66 70 73 74 76 78 79 80 80 80 77 73 68 63 59 55 51 49 49 50 53 57 64 75 84 86 85 83 81 79 78 77 75 74
15 17 19 21 24 28 32 33 36 42 46 51 56 62 67 71 73 74 76 78 79 80 79 77 73 67 62 58 54 50 45 43 43 44 45 45 47 50 57 69 82 89 88 86 84 82 80 78 77
17 20 22 25 28 30 36 37 40 45 50 56 61 67 71 74 76 77 78 79 79 78 74 69 63 58 55 52 49 46 45 45 45 44 44 45 45 45 46 53 64 80 90 91 89 87 85 83 80
20 23 26 29 31 33 38 43 44 49 55 61 66 70 74 76 77 78 79 79 77 74 67 61 56 54 52 51 49 47 46 45 45 44 44 44 44 44 44 44 49 60 77 90 93 92 90 87 84
23 26 29 31 34 36 39 46 49 54 60 65 70 73 75 77 77 78 78 76 74 68 61 56 54 53 52 52 51 50 50 49 48 47 46 44 43 43 42 41 41 45 56 72 87 93 93 92 89
24 27 30 33 37 39 44 48 54 59 64 68 72 75 76 77 78 78 76 73 68 62 57 54 54 54 55 54 54 54 54 54 52 51 49 46 44 42 41 39 38 37 41 51 65 80 89 93 92
24 28 33 38 42 43 46 51 58 63 67 71 74 75 77 78 78 75 72 68 63 59 56 55 56 58 58 58 58 58 57 57 56 55 53 50 46 43 40 38 36 35 34 38 46 58 71 82 89
24 27 32 37 42 45 49 54 61 66 70 73 75 76 77 77 75 72 68 64 60 58 58 59 60 61 61 60 59 58 58 57 56 56 54 52 49 45 41 37 35 34 33 33 36 43 52 63 74
26 30 33 38 44 49 53 58 65 69 72 74 75 76 77 75 72 68 65 62 60 60 61 62 62 61 59 57 55 54 53 53 52 52 52 51 50 47 44 39 36 34 33 33 33 36 41 48 56
28 33 37 40 46 53 58 63 67 71 73 75 75 76 75 72 69 65 63 62 63 64 64 62 59 56 53 51 51 50 50 49 49 48 48 47 46 46 45 42 39 36 34 33 33 33 36 40 44
30 34 38 42 47 53 60 65 68 72 74 75 75 75 73 69 66 64 64 65 65 64 61 57 54 52 51 50 50 50 49 49 49 49 47 46 44 43 43 42 41 39 37 36 34 34 35 37 39
31 35 39 44 50 55 61 67 71 72 73 74 75 74 70 67 65 65 65 66 64 60 56 53 51 51 51 51 51 51 51 50 50 49 47 46 44 42 40 40 41 41 40 38 37 36 36 37 38

GEFSSGP_500_meanwind_030.txt.gz
Wind_Speed
3 1 2 1 2 1 3 3 2 3 4 6 7 10 13 15 17 18 18 18 20 21 23 25 27 29 31 33 35 37 38 39 40 39 39 38 38 37 36 36 35 35 34 33 33 32 32 32 31
5 3 2 2 2 4 4 3 2 2 3 4 6 8 10 12 13 15 15 16 17 18 19 20 22 24 26 28 30 32 34 36 37 39 40 40 40 40 40 40 39 39 38 37 36 36 35 35 35
7 7 5 7 8 7 7 5 4 3 3 3 5 6 8 9 11 13 14 16 17 18 20 21 22 23 25 27 28 30 31 32 34 35 37 39 40 40 41 41 42 42 41 40 40 39 38 38 38
9 8 9 10 9 8 7 7 6 6 5 6 7 7 9 10 12 14 15 17 18 20 21 23 24 26 27 29 31 32 34 35 36 37 38 39 40 41 41 42 42 43 43 43 43 42 41 41 41
9 10 10 9 8 8 8 8 8 8 8 8 9 9 11 12 13 14 16 17 18 20 22 23 25 27 29 30 32 34 35 37 38 40 41 42 43 44 44 44 44 44 45 45 45 45 44 43 43
9 11 10 10 10 10 10 10 10 9 9 9 10 11 12 13 14 16 17 19 21 23 25 27 28 30 32 34 35 37 38 40 41 42 43 44 45 46 47 48 48 48 48 47 47 47 46 46 45
12 12 11 12 11 11 11 11 11 10 10 11 11 12 12 14 16 18 20 23 25 28 30 33 35 37 39 41 42 43 44 45 46 47 47 48 48 49 49 49 50 51 51 52 51 50 49 49 48
13 13 13 13 13 13 12 12 12 11 11 12 12 13 15 18 20 23 25 28 31 34 37 40 43 45 47 49 51 52 53 54 54 54 54 54 54 53 53 53 53 53 53 53 54 54 54 52 52
14 15 14 14 14 13 13 12 12 12 12 14 15 17 19 22 25 28 30 34 37 40 44 47 50 52 55 57 58 60 61 62 62 62 62 61 61 60 59 58 57 56 56 56 55 55 56 57 56
14 14 14 14 13 13 13 13 13 13 14 17 19 21 24 27 29 33 36 39 42 46 50 53 56 59 61 63 65 67 68 69 69 70 69 68 67 67 66 64 63 61 60 59 58 58 57 58 59
13 13 13 12 12 12 12 13 14 15 17 20 23 25 28 31 34 37 41 44 48 51 55 58 61 64 67 69 71 73 74 75 75 76 76 75 74 72 71 70 69 68 66 64 63 61 61 60 60
11 11 11 10 10 11 12 13 15 18 20 24 26 29 32 36 39 42 46 49 52 56 60 63 66 69 72 74 76 77 78 79 80 80 81 80 79 77 75 74 73 72 72 70 67 66 65 63 63
9 8 8 7 8 10 12 14 17 20 24 27 30 33 36 40 43 46 50 54 57 61 65 69 72 74 76 78 79 80 81 81 82 82 83 83 82 81 80 78 77 76 75 74 73 71 69 68 66
6 5 6 7 8 10 13 17 20 24 28 31 34 37 40 43 46 50 54 58 63 67 70 73 76 78 80 81 82 82 83 83 84 84 85 85 85 85 83 81 79 78 77 77 77 76 74 72 71
5 6 7 9 11 13 15 18 24 27 31 34 36 39 42 46 49 54 59 63 67 71 75 77 79 81 83 84 85 86 87 88 87 86 83 81 79 79 78 76 76 75 75 76 78 79 79 77 75
9 10 12 14 15 18 20 20 25 29 33 36 39 43 46 50 54 59 64 68 72 75 78 80 82 83 84 85 86 87 86 83 79 74 70 66 64 64 64 64 65 66 67 70 73 77 80 80 79
13 14 15 17 20 21 24 26 28 32 36 39 42 46 50 55 59 63 68 72 75 78 81 83 84 84 85 85 83 80 75 70 65 61 58 56 54 53 53 53 54 56 58 62 66 71 76 80 82
17 19 20 20 23 25 27 29 31 34 38 42 46 50 54 59 64 68 72 75 78 81 82 84 85 85 84 80 75 70 65 62 58 56 55 53 52 51 50 49 49 49 50 53 59 65 71 78 82
19 21 22 23 26 27 29 31 31 36 40 44 49 53 58 63 67 71 75 78 80 82 83 84 84 83 80 75 71 67 63 60 58 57 56 55 54 53 53 51 50 49 48 48 50 55 64 73 80
20 22 23 22 24 28 29 31 32 37 42 47 52 57 61 66 71 75 78 80 82 83 83 83 82 80 77 73 70 68 65 62 60 59 58 57 57 56 56 54 53 52 50 49 49 50 53 61 73
21 22 24 26 25 26 31 32 34 40 45 50 55 60 65 70 75 78 80 81 82 83 83 82 80 77 74 71 68 64 61 59 56 54 53 53 54 55 56 56 56 55 53 52 51 50 50 52 58
21 22 23 25 28 30 32 37 37 44 50 55 59 64 69 74 78 80 81 81 82 82 82 80 77 74 71 67 64 60 57 55 53 51 49 48 48 48 50 53 55 56 56 55 53 52 51 50 51
22 23 24 26 29 31 33 39 43 49 54 58 63 68 73 77 79 79 81 82 82 81 80 77 74 70 66 63 61 59 57 55 53 51 50 48 46 46 46 47 49 52 55 57 57 55 53 51 50
23 24 25 27 32 37 41 45 47 51 56 62 67 71 75 77 78 79 81 82 81 80 78 74 70 66 63 62 61 59 58 57 54 52 50 47 45 44 44 44 45 46 50 53 56 56 55 53 51
24 26 30 35 37 40 42 44 48 54 60 65 69 72 74 77 79 80 81 81 80 78 75 71 66 64 63 62 61 60 59 57 54 51 48 46 45 43 43 43 43 43 45 48 51 54 55 54 52
25 27 31 34 37 38 41 46 52 56 61 65 69 73 76 78 79 80 80 80 78 76 72 67 65 64 63 62 62 60 58 56 52 49 47 46 45 44 43 41 41 41 41 43 46 49 52 53 52
26 28 31 34 37 41 45 48 53 57 61 66 71 74 77 78 78 79 79 78 76 73 69 66 65 64 63 63 62 59 56 54 50 48 47 46 45 44 43 41 39 38 39 40 42 45 48 50 51
27 30 33 36 40 44 46 51 55 58 63 68 72 74 76 77 78 78 78 77 74 70 67 66 65 64 64 63 61 58 55 52 49 48 47 46 46 45 43 41 39 37 36 37 38 41 44 47 49
28 31 33 35 39 44 50 53 55 60 65 70 72 74 76 77 77 77 77 75 71 67 66 65 65 64 64 62 59 56 54 51 50 49 49 48 47 46 44 42 39 35 34 34 35 37 40 44 46
29 32 35 37 40 43 48 54 56 61 67 71 73 74 75 76 76 76 75 72 68 65 64 64 65 64 63 61 58 55 53 52 51 50 50 50 49 47 46 43 39 35 32 31 32 34 36 40 43

GEFSSGP_500_meanwind_036.txt.gz
Wind_Speed
7 6 6 5 5 4 5 7 7 4 1 3 5 7 7 7 7 7 7 8 9 10 12 13 15 17 18 20 22 24 26 28 30 33 36 38 41 43 45 46 47 47 46 45 44 42 41 40 39
11 10 9 8 8 7 7 6 7 5 3 1 3 5 6 7 7 8 8 9 10 11 13 15 16 18 20 21 23 25 26 28 30 31 33 35 37 40 42 45 47 49 50 50 50 48 46 45 44
12 13 11 10 10 9 9 9 9 7 5 3 3 4 5 6 8 8 9 10 11 13 15 16 18 20 22 24 26 27 29 31 32 33 35 36 38 39 40 42 44 47 49 51 52 53 52 51 49
13 13 11 10 11 10 10 9 8 7 5 4 4 5 6 6 7 8 9 11 13 16 18 20 23 25 27 29 31 33 35 36 37 38 40 40 41 42 43 44 45 46 47 49 51 53 55 55 54
14 12 11 11 10 10 10 10 9 8 7 6 6 6 6 6 8 10 13 15 18 20 23 26 28 31 33 35 37 39 41 43 44 45 46 47 47 48 48 48 49 49 49 50 51 52 54 56 57
13 12 13 12 12 12 12 11 10 9 8 7 6 6 7 9 12 15 18 21 23 26 29 32 34 37 40 42 45 47 49 50 52 53 54 55 55 56 55 55 55 55 54 54 53 53 54 55 57
14 14 15 14 14 14 13 12 10 8 7 7 8 9 12 14 17 20 23 26 28 31 34 37 40 44 47 49 52 54 56 58 60 61 62 63 64 64 64 63 62 61 60 60 59 57 57 57 58
16 16 15 15 14 13 12 10 8 7 6 9 11 13 16 19 22 25 28 31 34 37 40 43 46 50 53 56 59 61 64 66 68 69 70 71 72 72 72 71 71 69 68 66 64 63 62 61 60
16 16 14 13 11 10 9 8 8 8 9 12 15 18 21 24 27 30 33 36 40 43 46 49 52 55 58 61 64 67 69 72 74 76 77 78 79 79 79 79 78 76 75 73 71 69 67 66 64
13 12 11 10 9 8 8 8 9 11 13 16 19 22 25 28 31 34 37 40 43 47 50 53 56 59 62 65 68 70 73 76 78 80 81 83 84 85 85 84 84 83 81 78 76 74 72 71 69
9 8 7 7 7 7 8 10 12 14 16 19 23 26 29 32 35 38 41 44 47 50 54 57 60 63 66 69 71 74 77 79 82 84 85 86 88 89 89 89 89 87 85 83 81 79 77 75 74
5 5 5 6 7 9 11 13 15 17 20 23 25 28 31 35 38 41 44 47 51 54 57 60 63 66 70 73 76 79 81 84 86 88 90 92 93 94 94 94 93 92 90 88 85 83 81 79 78
3 5 6 8 10 12 15 17 20 21 23 26 28 30 33 37 40 44 47 50 54 57 60 63 67 71 74 77 80 82 85 88 91 93 94 95 96 96 95 94 93 92 91 91 89 88 86 84 82
8 9 10 12 13 16 19 22 24 25 26 28 30 32 34 38 42 45 49 52 56 59 63 67 71 74 77 80 84 87 90 92 94 94 92 90 89 87 86 85 84 83 83 83 84 85 85 86 86
12 13 15 16 17 18 20 23 26 27 28 29 30 32 36 40 43 47 51 55 59 63 67 71 74 77 81 85 88 91 93 93 91 88 84 81 78 75 74 73 72 72 71 72 74 77 79 81 84
14 16 17 19 20 20 21 22 25 27 28 29 32 35 39 42 46 50 54 58 62 67 71 75 78 81 85 89 91 93 92 88 84 79 75 72 70 68 66 65 65 64 64 65 66 68 71 75 78
16 17 18 20 20 20 21 22 24 27 29 32 35 38 42 45 49 53 57 62 66 71 74 78 81 85 88 90 91 90 85 81 77 74 72 70 67 65 64 62 61 60 60 61 62 64 66 69 73
15 14 16 18 18 19 20 22 25 28 32 35 37 40 44 48 52 57 62 66 71 75 78 81 85 87 89 89 87 82 77 75 73 72 71 68 65 63 61 59 57 57 58 59 60 62 64 66 69
16 16 16 18 19 20 21 23 26 31 34 36 39 42 46 51 56 61 66 71 75 78 80 84 86 88 88 86 81 76 73 72 71 70 68 65 62 59 57 55 53 53 54 56 58 60 62 64 66
18 18 18 19 20 22 23 24 28 32 34 37 40 45 50 55 60 65 69 74 77 79 82 85 87 87 86 82 77 75 73 72 70 67 63 60 57 53 51 50 49 49 50 51 54 58 60 63 65
18 18 18 19 21 23 25 25 29 32 35 39 43 48 53 58 63 68 72 75 78 80 83 85 86 85 82 78 75 74 72 69 65 60 56 53 50 48 46 45 44 44 45 47 49 53 57 60 63
18 18 19 21 22 26 29 29 30 34 38 42 47 51 56 61 66 70 73 76 78 80 83 85 85 82 78 76 75 74 71 66 61 56 52 49 48 46 45 43 42 42 42 42 44 48 52 57 61
19 20 21 22 24 26 29 31 33 37 41 45 49 53 58 63 67 71 73 75 78 81 83 83 81 78 76 76 75 73 69 63 57 52 49 47 47 47 45 44 42 41 41 41 41 43 47 52 57
21 22 23 24 25 28 31 34 36 40 43 47 51 56 60 65 68 71 73 75 78 81 82 81 78 76 75 75 73 71 65 59 54 50 48 48 47 48 47 46 45 44 42 41 41 41 43 47 53
22 24 26 28 29 31 33 35 38 41 45 49 53 57 61 65 68 71 73 75 78 80 80 78 76 74 74 73 71 67 62 57 53 51 51 51 51 51 51 50 48 47 45 43 41 40 41 43 48
24 26 29 32 33 33 34 36 39 43 47 50 55 58 62 65 69 71 73 76 78 79 78 76 73 73 73 71 68 64 61 57 55 55 56 56 56 55 54 53 52 50 47 44 42 40 40 41 44
26 28 30 32 35 35 36 39 42 45 48 52 55 59 62 66 69 71 73 76 78 78 76 74 72 72 71 70 66 63 60 58 57 58 60 61 61 59 58 56 53 51 48 45 43 41 39 39 41
28 30 32 33 37 39 40 40 43 46 49 52 56 60 64 67 69 71 73 76 77 76 74 72 71 71 70 68 65 63 60 59 60 62 64 64 64 64 61 57 53 49 46 43 41 40 38 37 37
28 30 31 32 34 38 42 41 43 46 49 53 57 61 64 67 69 71 73 76 76 74 72 69 69 69 68 66 64 62 61 62 64 66 68 68 69 67 61 55 49 45 43 41 38 37 35 34 34
28 29 31 33 35 37 41 42 44 47 50 54 58 61 65 67 69 71 73 74 74 71 69 68 68 68 67 65 64 63 63 65 67 68 70 72 71 65 56 47 39 33 32 34 35 34 32 30 30

GEFSSGP_500_meanwind_042.txt.gz
Wind_Speed
5 3 3 2 1 1 1 2 3 3 2 2 2 2 3 4 5 6 7 9 10 11 13 14 15 16 17 18 20 21 22 24 25 26 27 28 29 30 30 31 33 34 36 39 42 45 47 48 48
6 6 6 5 5 5 4 3 2 2 3 4 4 5 5 7 8 9 10 11 12 14 15 16 18 20 21 23 25 27 28 30 31 33 34 35 36 36 36 37 37 37 38 38 40 42 45 48 50
10 9 9 8 8 8 7 6 6 6 6 6 7 7 8 9 10 10 11 13 14 16 18 20 22 25 27 29 31 33 35 37 38 40 41 42 43 44 44 44 45 44 44 44 43 43 44 45 48
11 10 10 9 9 9 8 8 8 8 8 8 8 8 9 10 10 11 13 15 17 20 22 25 28 30 32 34 36 38 40 42 44 46 47 48 50 51 51 52 52 52 51 51 51 50 49 48 48
12 11 11 10 10 10 10 9 9 9 9 8 8 8 9 11 12 14 17 19 22 25 27 30 33 35 37 40 42 44 46 48 50 51 53 54 56 57 57 58 59 59 58 58 57 57 56 55 53
13 12 11 11 11 11 10 9 8 7 7 7 8 10 11 14 16 18 21 24 27 30 33 35 38 40 42 45 47 49 51 53 55 57 59 60 62 63 64 65 65 65 65 64 64 63 62 61 60
13 12 11 11 10 8 8 7 6 6 6 7 10 12 15 17 20 23 26 29 32 35 37 40 42 44 47 49 52 54 56 59 61 63 64 66 68 70 71 72 72 72 72 72 71 70 69 67 66
11 10 9 8 7 6 5 5 6 7 8 11 13 16 19 22 25 28 31 33 36 38 41 43 46 48 51 54 57 59 62 64 66 68 70 72 73 75 76 77 78 79 79 79 78 77 76 74 72
8 7 6 6 4 4 6 7 9 11 13 16 18 21 24 27 29 32 34 36 39 41 44 46 49 52 55 58 61 63 66 68 70 72 74 75 77 78 80 81 83 84 85 85 85 84 83 81 79
4 3 4 4 5 6 9 11 13 16 18 21 23 26 28 31 33 35 37 39 41 44 48 50 53 56 59 62 64 67 70 72 74 76 77 79 81 83 85 86 88 89 90 91 92 92 92 90 87
3 4 6 7 9 11 13 15 18 20 22 25 27 30 32 33 35 37 39 41 44 47 51 54 57 60 62 65 67 70 73 75 77 79 82 84 86 88 90 92 93 94 95 96 97 98 98 98 97
7 9 11 12 14 16 18 20 22 24 26 28 30 32 33 35 37 39 41 44 47 50 54 57 60 62 65 68 71 74 76 78 81 84 87 89 92 94 95 96 95 95 94 95 96 97 99 101 102
11 13 15 17 19 20 22 23 25 26 28 29 31 32 35 37 39 41 44 46 49 52 56 59 62 65 68 71 74 77 80 83 87 90 93 95 96 96 95 94 91 90 88 88 88 89 91 95 98
15 17 19 20 21 22 24 25 26 27 29 30 32 34 36 39 41 43 45 48 51 55 58 61 64 68 71 75 78 81 85 89 92 95 96 96 95 93 90 88 85 84 82 81 80 81 82 84 88
18 19 20 21 22 23 23 24 25 26 28 29 32 35 38 40 42 44 47 50 53 57 60 64 68 72 75 79 82 86 90 93 95 95 94 92 89 87 85 83 81 79 77 75 74 74 75 76 79
19 20 21 21 21 22 23 23 24 25 27 30 32 36 38 40 42 45 48 52 56 59 63 67 71 75 78 82 86 90 93 94 94 92 89 86 84 83 81 78 75 71 69 67 66 65 66 68 71
19 20 21 22 22 22 23 23 24 26 28 31 33 36 39 41 44 47 50 54 58 61 66 70 74 77 81 85 89 92 93 92 90 87 85 83 81 78 74 70 65 61 58 56 55 54 56 58 63
20 21 22 22 22 22 22 23 25 27 29 31 34 36 39 42 45 49 53 56 60 64 68 72 76 79 83 87 90 91 90 88 85 84 82 80 77 72 67 62 58 55 52 50 49 48 48 50 53
20 20 21 21 21 21 22 23 26 27 29 32 34 37 40 44 47 51 55 58 63 67 71 74 78 81 84 87 89 89 87 84 83 81 80 76 71 67 62 58 55 53 51 50 49 47 47 47 48
19 19 20 20 21 22 22 23 26 28 30 33 36 39 42 46 49 53 57 61 65 69 72 76 79 82 86 89 89 87 84 82 80 78 75 71 67 64 61 58 57 56 55 54 53 51 48 46 47
18 19 20 21 22 23 23 23 27 29 31 34 37 41 44 48 51 55 59 63 66 70 73 76 79 83 87 88 87 84 81 79 77 75 71 67 65 63 62 62 61 61 61 60 59 56 53 49 47
19 19 21 22 23 24 26 25 27 30 33 36 39 42 46 49 53 57 60 64 67 71 74 77 80 84 87 86 84 82 79 78 76 73 69 66 64 64 65 67 68 68 67 65 63 60 57 53 49
19 20 21 22 23 24 26 27 29 32 35 38 41 44 47 51 54 58 61 65 68 71 74 78 81 84 85 84 82 79 78 77 75 71 68 66 66 68 70 72 72 70 67 65 63 60 57 54 51
20 20 21 22 23 24 27 29 31 34 36 39 42 45 49 52 55 58 62 66 69 71 75 78 81 83 83 82 79 78 76 75 73 70 68 67 69 71 74 72 68 64 61 59 57 56 54 52 49
22 23 24 24 25 26 28 29 32 34 37 40 44 47 50 53 56 59 63 66 69 72 75 78 80 81 81 79 77 76 75 75 73 71 71 71 73 74 72 67 62 57 52 49 48 48 49 48 46
24 26 27 28 28 26 27 28 31 34 38 42 45 48 50 53 56 60 63 66 69 71 74 77 80 80 79 77 75 74 74 74 72 72 73 75 76 75 70 64 58 51 45 39 35 36 38 40 41
26 27 29 30 30 28 28 31 33 37 40 43 46 48 51 54 56 60 63 66 69 71 74 77 78 78 77 75 73 72 73 73 72 73 74 76 76 73 68 61 55 48 40 32 24 22 26 30 33
28 30 31 32 35 34 32 33 36 39 41 44 46 49 51 54 57 60 64 66 68 71 74 76 77 77 75 73 71 71 72 72 72 73 74 75 75 71 64 58 52 45 39 31 20 10 13 19 25
30 31 33 33 34 36 37 35 39 40 42 45 47 49 52 54 57 61 64 66 68 70 73 75 76 75 73 71 70 70 70 71 72 72 74 74 73 69 63 56 50 44 39 32 22 11 2 10 16
30 33 34 35 36 37 38 38 41 41 43 45 47 49 52 55 58 61 64 66 67 70 72 74 74 73 71 69 68 68 69 70 71 71 72 73 71 67 62 55 47 41 36 31 24 15 6 2 10

GEFSSGP_500_meanwind_048.txt.gz
Wind_Speed
8 8 8 6 5 4 4 3 3 3 3 2 2 3 3 3 3 3 3 4 6 8 10 12 14 16 18 20 22 24 26 28 29 31 32 33 34 36 37 38 39 39 40 41 41 41 42 43 44
12 11 10 9 8 7 6 6 6 6 5 4 4 3 3 3 3 4 6 8 10 12 14 17 19 21 24 26 28 30 31 33 34 36 37 39 40 41 42 43 44 45 46 46 47 47 47 46 46
13 12 11 10 9 8 8 7 7 7 6 5 4 3 2 3 5 7 10 12 15 17 19 22 24 26 28 30 32 34 36 37 39 40 42 43 45 46 47 48 49 50 51 51 52 52 53 53 52
13 12 11 10 10 9 8 8 7 7 5 4 2 2 4 6 9 11 14 17 19 21 24 26 28 30 32 34 36 37 39 41 43 44 46 48 49 51 52 53 54 55 55 56 57 57 57 58 58
13 12 11 11 10 9 8 7 6 4 2 2 3 6 8 11 14 16 19 21 24 26 28 30 32 34 35 37 38 40 42 45 47 49 51 53 54 56 57 58 59 60 61 62 62 62 63 62 62
12 11 10 9 8 6 5 4 2 2 3 6 9 11 13 16 19 21 24 26 28 29 31 33 34 36 37 39 41 44 46 49 51 53 55 58 60 62 63 65 66 67 68 68 69 69 68 68 68
9 8 7 6 4 3 2 2 3 6 8 11 13 16 18 20 23 25 27 28 30 32 33 35 36 38 40 42 45 48 50 53 55 58 60 62 65 67 69 71 72 74 75 76 76 76 76 75 74
5 4 3 2 2 3 5 6 8 10 12 15 17 19 21 23 25 27 28 30 32 33 35 37 39 41 44 47 50 52 55 58 60 63 65 68 70 72 75 77 79 80 81 82 82 82 82 82 81
2 2 3 4 6 7 9 10 12 15 17 19 21 22 24 25 26 28 29 31 32 34 37 39 42 44 47 51 54 57 59 62 65 67 70 73 76 78 81 83 85 86 88 89 89 89 89 88 88
5 6 7 9 10 12 14 15 17 18 20 21 23 24 25 26 27 28 30 32 34 37 39 42 45 48 51 54 57 60 63 66 69 72 75 78 81 84 87 89 91 92 94 95 96 97 96 96 95
9 10 12 13 15 16 18 19 20 21 22 22 23 24 25 26 27 29 31 34 37 39 42 45 48 51 54 57 60 62 65 69 72 76 79 82 85 88 91 94 96 98 99 100 100 100 101 101 101
13 14 15 17 18 18 19 20 20 21 21 22 22 23 25 26 28 30 33 36 39 42 45 48 51 54 57 59 62 65 68 72 76 80 83 87 90 93 96 99 101 101 101 100 100 99 98 99 99
14 15 16 17 18 18 19 19 20 20 21 21 22 24 25 27 29 32 35 38 41 44 47 50 53 56 59 61 65 68 72 76 80 84 88 91 95 98 100 101 100 99 97 95 93 92 91 90 91
15 15 16 16 17 17 18 18 19 20 21 22 23 25 27 28 31 34 37 40 43 46 49 52 54 57 60 64 67 71 75 79 83 87 91 95 97 99 98 97 94 90 88 86 85 84 83 83 83
15 15 16 16 16 17 17 18 19 20 22 23 25 26 28 30 33 36 39 42 45 48 50 53 55 59 62 66 70 74 78 82 86 90 94 96 96 95 93 89 86 83 82 81 79 78 77 77 76
15 15 16 16 16 17 18 19 20 22 23 24 26 27 29 31 34 37 40 43 46 48 51 54 57 61 65 69 72 76 80 84 88 92 94 94 92 89 86 83 81 80 79 77 75 74 72 70 69
15 16 16 16 17 18 19 20 21 23 24 25 27 28 30 33 36 39 41 44 47 49 52 55 59 63 67 71 75 78 82 86 90 92 92 90 87 83 81 80 79 78 76 75 74 73 71 69 67
15 15 16 17 17 18 20 22 23 24 25 26 27 29 32 34 37 40 42 45 47 50 53 57 61 65 69 73 76 80 84 88 90 91 89 86 82 80 79 78 77 76 76 76 76 75 73 72 70
14 15 16 17 18 19 20 22 24 24 25 26 28 30 32 35 38 41 43 46 48 51 55 59 63 67 70 74 77 81 85 88 89 88 85 82 79 78 77 76 75 76 76 76 74 72 70 69 70
14 14 15 17 18 19 19 21 24 24 25 26 28 30 33 36 39 42 44 47 50 53 57 61 65 68 71 74 78 82 85 87 87 84 81 79 77 76 75 74 75 76 75 72 69 66 64 62 62
13 14 16 17 18 19 20 20 23 23 24 26 28 31 34 37 40 43 46 49 51 55 59 63 66 69 72 75 79 82 85 86 84 81 78 76 75 75 74 74 75 74 73 69 65 61 57 54 52
13 15 16 17 19 20 21 20 23 24 25 26 29 32 35 38 41 44 47 50 53 56 60 64 67 70 72 76 79 82 84 83 81 78 76 74 74 73 73 73 74 72 70 66 62 56 51 45 42
14 16 17 18 19 20 21 22 23 25 26 28 31 34 37 40 43 46 49 51 54 57 61 65 68 70 73 76 79 81 82 81 79 76 74 73 72 72 72 72 72 70 67 62 58 52 45 37 31
14 16 17 19 20 21 23 24 25 27 28 30 33 35 38 41 44 47 49 52 55 58 62 66 68 70 73 76 79 81 81 79 76 73 72 71 71 71 71 71 69 67 63 58 53 47 40 32 24
14 16 18 21 22 23 24 26 27 29 30 32 35 37 40 42 45 47 50 53 56 59 63 66 68 70 73 76 78 79 79 77 74 72 70 70 69 69 69 69 67 64 60 53 49 43 37 30 21
14 16 20 22 23 23 26 28 30 32 33 36 38 40 41 43 45 48 51 54 57 60 63 66 68 70 72 75 77 78 77 75 73 71 69 69 69 68 68 68 66 62 57 49 44 39 34 28 20
13 16 19 21 23 25 28 30 32 35 37 39 41 42 44 45 47 49 52 54 57 60 64 66 68 69 72 74 76 77 76 74 71 69 68 68 68 67 67 66 64 61 55 47 39 34 30 25 18
13 16 20 23 26 28 30 33 35 38 40 42 44 46 47 48 49 51 53 56 58 61 64 66 67 69 71 73 75 75 74 72 70 68 67 67 66 66 66 65 63 59 54 46 37 31 27 22 17
14 17 20 23 26 29 31 33 35 38 41 44 47 49 50 51 52 54 55 57 59 61 64 66 67 69 71 73 74 74 73 70 69 67 66 65 65 65 65 64 63 59 54 46 37 30 26 21 16
14 17 20 22 25 27 30 33 36 39 42 45 48 51 53 54 55 56 57 58 59 62 64 66 67 68 70 72 73 73 71 69 68 66 65 64 64 64 64 63 62 60 54 47 39 31 25 21 16

GEFSSGP_500_meanwind_054.txt.gz
Wind_Speed
9 9 8 7 6 5 4 3 3 3 3 3 4 4 5 6 7 7 7 8 9 10 12 14 16 18 20 22 24 25 27 29 30 31 33 34 35 36 38 39 40 42 42 43 44 45 45 45 45
11 10 10 8 7 7 5 4 3 3 3 3 3 4 5 6 7 8 9 11 13 14 16 18 20 22 24 25 27 29 30 32 33 34 36 37 39 40 42 43 44 45 47 48 48 49 50 50 50
12 11 10 8 8 8 6 4 3 3 3 3 3 4 6 7 9 11 13 15 17 18 20 22 23 25 27 28 30 31 33 34 35 37 39 40 42 43 45 46 48 49 50 51 52 53 54 54 54
11 10 9 8 8 6 5 4 3 2 2 3 5 6 8 10 12 15 16 18 20 21 23 24 26 27 28 30 31 33 34 36 38 39 41 43 45 46 48 50 51 53 54 55 56 57 58 59 59
9 8 8 7 5 4 3 3 2 3 4 6 7 10 12 14 16 18 20 21 22 24 25 26 27 28 30 31 33 35 36 38 40 42 44 46 48 50 52 54 55 57 59 60 61 63 64 64 65
6 5 5 5 3 3 3 4 5 6 8 10 11 13 16 18 19 21 22 23 24 25 26 27 28 30 32 34 35 37 39 41 42 45 47 49 51 54 56 59 61 63 65 67 69 70 71 72 72
4 3 4 4 3 4 6 8 9 10 12 14 15 16 19 20 21 22 23 24 25 26 27 28 30 32 34 36 38 40 42 43 46 48 50 53 56 59 62 65 68 70 73 75 77 78 80 80 81
4 4 5 6 7 8 10 12 14 15 16 18 19 19 21 22 22 23 24 24 25 27 28 30 32 34 36 38 40 42 44 46 48 51 54 57 61 64 67 71 74 77 80 82 85 87 88 89 89
7 8 9 10 11 12 14 15 17 18 19 20 20 20 21 22 22 23 24 25 27 28 30 32 34 36 38 40 42 44 46 49 52 55 58 61 65 69 72 76 79 83 86 89 92 94 96 98 98
11 12 13 14 15 15 16 17 18 19 19 19 20 20 20 21 22 23 25 26 28 29 32 34 36 38 40 42 44 46 49 52 55 58 62 65 69 73 76 80 84 87 91 95 98 102 104 106 107
13 14 15 16 16 16 17 17 18 18 17 18 19 19 20 21 23 24 26 27 29 31 33 36 38 40 42 44 46 49 52 55 58 62 65 69 72 76 80 84 88 92 96 101 105 108 110 111 112
14 15 15 15 16 16 16 16 16 16 16 17 17 19 20 22 24 26 27 29 31 33 35 38 40 42 44 47 49 52 55 58 61 65 68 71 75 79 83 88 92 97 102 105 108 109 109 108 107
14 14 14 15 15 15 15 15 15 16 16 17 17 19 21 23 25 27 28 30 32 35 37 39 42 44 46 49 51 54 57 61 64 68 71 74 78 82 87 91 96 101 103 105 104 102 98 95 92
13 13 13 14 14 14 14 15 15 15 16 17 18 20 22 24 25 28 30 32 34 37 39 42 44 46 48 51 53 56 59 63 66 70 73 76 80 85 90 95 99 101 101 98 93 88 84 81 80
13 13 13 13 13 13 14 14 15 15 16 17 18 20 22 24 27 29 31 34 37 39 41 43 46 48 50 52 55 58 62 65 68 71 75 79 83 88 93 97 99 97 92 88 83 80 79 78 78
12 11 11 12 12 13 13 12 14 15 15 17 19 21 24 26 29 31 34 36 39 41 43 45 47 49 52 54 57 60 63 67 70 73 77 81 86 91 95 97 94 90 85 81 79 78 77 77 78
11 11 9 9 12 13 14 13 13 16 16 18 20 23 25 28 31 33 35 38 40 42 44 46 48 51 53 55 58 62 65 68 71 74 78 83 88 92 94 93 88 84 79 77 77 76 77 76 75
10 10 11 10 11 12 14 14 14 16 18 20 22 25 27 29 32 34 37 39 41 43 45 47 49 52 54 56 60 63 66 69 72 76 80 85 89 92 91 87 84 79 76 76 75 75 74 73 73
9 9 10 11 11 12 13 14 15 16 19 21 23 26 28 30 32 35 37 39 41 43 46 48 50 52 55 57 60 64 67 70 73 77 82 86 89 91 88 84 79 76 74 74 73 74 71 70 70
7 8 9 9 11 12 13 14 15 17 20 22 24 27 29 31 33 35 37 40 42 44 46 48 50 53 55 58 61 64 68 71 74 78 83 86 89 88 84 80 76 74 73 72 72 71 70 67 65
5 7 8 8 9 11 13 13 15 17 20 22 25 27 29 32 34 36 38 41 43 45 47 49 51 53 56 59 62 65 68 71 75 79 83 86 87 84 81 77 74 73 72 71 70 69 68 65 60
4 6 7 7 8 9 11 13 15 18 20 23 25 28 30 33 35 38 40 42 44 47 49 51 53 55 57 60 63 66 69 72 75 79 83 85 84 82 78 75 72 72 71 69 68 67 66 63 58
4 5 6 7 8 10 12 13 15 18 20 23 26 28 31 34 37 40 42 44 47 49 52 54 55 57 59 61 64 67 70 72 76 80 82 83 81 79 76 73 71 70 69 68 67 65 63 60 56
6 6 7 8 8 10 13 15 17 19 21 24 26 29 32 35 38 41 44 46 49 52 55 57 59 60 61 63 66 68 70 73 76 79 81 81 79 76 73 71 70 69 68 66 65 64 61 57 52
8 8 9 9 10 11 14 15 17 20 22 25 28 30 33 36 39 42 45 48 51 54 57 59 62 63 64 65 67 69 71 73 76 79 80 80 77 74 71 69 68 67 66 65 64 62 60 56 50
10 11 11 12 12 13 15 16 18 20 23 26 29 32 35 37 40 43 47 50 53 56 59 61 64 65 66 67 69 71 72 73 76 78 79 79 76 72 70 68 67 66 65 63 62 61 59 55 48
13 13 13 14 15 15 17 18 19 22 24 27 30 33 36 39 41 45 48 51 54 57 60 63 65 67 69 69 70 72 72 74 76 78 78 77 74 71 69 67 66 65 64 62 61 60 58 54 47
16 16 16 16 18 19 20 22 25 27 29 31 32 34 36 39 42 46 49 52 55 58 61 64 67 69 70 71 72 73 73 74 75 77 77 75 73 70 68 66 65 64 63 61 60 59 57 53 47
18 19 19 20 21 23 24 24 27 29 31 34 36 37 39 42 44 47 50 53 56 59 62 65 68 70 71 73 73 73 73 74 75 76 76 74 72 69 67 65 65 64 62 60 59 58 56 52 46
22 22 22 23 24 25 28 27 29 31 33 35 37 39 41 43 45 48 51 54 57 60 63 66 68 70 72 73 74 74 74 74 74 75 75 73 71 68 66 65 64 63 62 60 58 57 55 51 46

GEFSSGP_500_meanwind_060.txt.gz
Wind_Speed
9 8 7 7 7 7 7 7 8 8 8 8 8 8 7 6 5 4 5 6 8 9 11 13 14 16 17 18 20 21 22 23 25 26 27 27 28 29 31 32 33 34 35 36 37 38 39 40 41
11 11 10 9 9 8 8 8 9 8 7 6 6 5 5 5 5 6 8 10 11 13 14 15 17 18 19 20 21 22 23 24 26 27 28 30 31 32 33 34 35 36 37 39 40 41 42 43 44
11 11 11 10 9 7 8 8 7 6 5 4 4 5 5 6 8 10 11 13 14 15 16 18 19 20 20 21 22 23 25 26 27 29 30 31 32 33 35 36 37 38 39 41 42 43 44 46 47
10 10 9 8 6 6 6 6 5 4 4 5 6 7 9 10 11 13 14 15 16 17 18 19 20 20 21 22 23 25 27 28 29 31 32 33 34 35 37 38 39 41 42 43 45 46 48 49 51
8 7 7 5 4 4 4 4 4 4 6 7 9 10 11 13 14 16 17 17 18 18 19 19 20 21 22 24 26 27 29 30 31 32 33 35 36 37 38 40 42 44 45 47 49 51 53 55 56
6 5 4 4 4 5 4 5 6 7 9 11 13 14 14 15 16 17 18 18 18 19 19 20 22 23 24 26 28 29 31 32 33 34 35 36 38 39 41 43 45 47 50 52 54 56 58 61 63
5 5 5 5 7 7 7 8 10 11 12 14 16 17 16 16 16 17 17 18 18 19 20 21 23 24 26 28 29 31 32 33 34 36 37 39 41 42 44 47 49 52 54 57 59 62 65 68 70
7 7 7 9 10 10 10 11 12 14 14 15 17 17 16 16 16 17 17 18 19 20 22 23 24 26 28 29 30 32 33 35 36 38 40 41 43 45 48 50 53 55 58 61 64 67 71 74 77
9 9 10 11 12 12 12 12 13 13 14 14 15 15 15 15 15 16 17 18 19 21 23 24 26 27 29 30 32 34 35 37 39 41 42 44 46 48 51 53 56 58 61 65 68 72 76 79 84
11 11 10 11 12 13 12 11 11 12 12 12 13 13 14 14 15 16 18 19 20 22 23 25 26 28 30 31 33 35 37 39 41 42 44 46 49 51 53 56 58 61 65 68 72 77 80 85 90
11 10 10 9 10 11 11 10 10 10 11 11 11 11 12 13 14 16 18 19 21 22 24 26 28 30 31 33 35 36 39 41 42 44 47 49 51 54 56 59 61 64 67 71 76 80 84 90 95
11 10 9 9 8 9 9 9 9 10 10 10 11 11 12 12 14 15 17 19 21 23 25 27 29 31 32 34 36 39 41 42 44 46 48 51 53 56 58 61 63 66 70 74 78 83 89 94 99
10 10 9 8 7 8 8 8 8 9 10 11 11 12 12 12 13 15 17 19 21 23 25 27 29 32 33 36 38 40 42 44 46 47 49 52 54 57 59 62 65 68 72 76 81 87 92 97 101
10 9 8 7 7 7 8 8 7 8 9 10 11 12 12 13 14 16 18 20 22 24 26 28 30 32 34 36 38 40 42 44 46 48 50 53 55 57 60 62 65 69 74 79 84 90 94 97 97
9 9 8 7 6 6 8 8 7 7 8 9 10 11 12 13 15 16 18 20 22 24 26 28 29 31 33 35 37 39 41 44 46 48 50 53 55 57 60 63 67 71 76 81 87 91 94 93 91
9 8 7 7 6 6 7 8 7 7 7 8 9 10 11 13 15 16 18 20 22 24 26 28 30 32 34 36 38 40 42 44 46 48 51 53 55 58 61 64 68 73 78 83 88 90 90 88 85
8 8 7 7 6 6 6 7 8 7 7 8 9 10 11 13 15 17 18 20 22 25 27 29 31 33 35 37 39 42 44 46 48 50 52 54 57 59 62 66 70 75 80 85 88 88 87 84 80
8 7 8 8 8 7 6 6 7 7 7 8 9 10 11 13 15 17 19 21 23 26 29 31 32 35 37 39 41 44 46 48 50 52 54 56 58 61 64 68 72 77 82 85 86 85 83 80 77
9 9 9 9 8 8 7 7 7 7 7 8 9 10 12 13 15 17 19 22 24 27 30 33 35 37 39 41 43 45 48 51 53 55 57 59 61 63 66 70 74 78 82 84 84 82 79 77 75
12 11 10 10 9 9 9 8 8 8 8 9 10 11 12 14 15 18 20 23 25 28 31 34 37 39 41 43 45 47 50 53 55 57 60 61 63 65 68 72 76 79 82 82 81 80 77 74 73
14 13 12 12 12 11 11 11 11 11 11 11 12 13 14 15 17 19 21 24 27 29 32 35 38 41 43 45 47 50 52 55 58 60 62 64 66 68 70 74 77 80 81 80 79 77 75 72 70
15 15 14 14 14 14 14 14 13 14 14 14 15 16 17 18 19 21 23 26 28 30 33 36 39 42 45 47 50 52 54 57 60 62 64 66 68 70 72 75 77 79 79 78 76 75 73 71 68
17 17 17 17 17 17 17 17 16 17 17 18 19 20 20 21 22 24 26 28 31 33 35 38 41 44 47 49 51 54 56 59 61 64 66 68 69 71 73 76 77 78 78 76 74 73 71 70 68
19 19 20 20 20 19 19 20 19 19 20 21 22 23 24 25 26 28 29 31 34 36 38 40 42 45 48 51 53 55 58 60 63 65 67 69 71 72 74 76 77 77 76 74 72 70 69 68 67
21 21 22 23 23 22 23 23 21 22 23 23 25 26 27 29 30 31 33 35 37 39 41 42 44 47 49 52 54 57 59 61 64 66 69 70 72 73 75 76 76 76 74 72 70 68 67 66 65
23 23 25 26 26 25 26 26 24 25 26 26 28 29 30 31 33 34 36 38 40 41 43 45 46 48 50 53 56 58 60 63 65 67 70 71 72 73 75 75 75 74 73 70 68 67 65 64 63
24 25 27 29 30 30 30 29 26 27 29 30 31 32 33 34 35 37 38 40 42 44 45 47 48 50 51 54 56 59 61 64 66 68 71 72 73 74 75 75 74 73 71 69 67 65 64 62 61
27 28 29 31 33 34 33 31 29 29 31 33 34 35 37 37 39 40 41 42 44 46 47 49 50 51 53 55 57 59 61 64 67 69 71 73 74 74 75 75 74 72 70 68 65 63 63 61 59
28 29 31 33 36 38 39 34 31 33 35 36 38 39 40 41 42 43 43 45 46 48 49 51 52 53 54 55 57 60 62 65 68 69 72 73 74 74 74 74 73 71 69 67 64 62 62 59 57
30 31 33 36 38 41 44 39 32 35 37 40 42 43 44 44 44 45 46 47 48 49 51 52 53 54 55 56 58 60 62 65 68 70 72 73 73 73 74 73 72 70 68 66 63 61 60 58 56

GEFSSGP_500_meanwind_066.txt.gz
Wind_Speed
9 8 7 6 5 4 4 4 4 3 3 3 2 2 2 2 2 3 3 5 6 8 9 10 12 13 14 15 17 18 18 19 20 20 21 22 22 23 24 24 25 25 26 27 27 28 28 29 29
10 9 7 7 6 6 5 4 4 4 3 2 1 1 3 4 5 6 7 8 9 11 12 13 14 15 16 17 18 19 20 21 21 22 23 23 24 25 25 26 26 27 28 28 29 30 31 31 32
9 8 7 6 5 4 4 3 2 1 1 1 2 3 5 6 7 8 10 11 12 13 14 15 16 17 18 19 19 20 21 22 23 24 24 25 25 26 26 27 28 28 29 30 31 32 33 34 35
7 6 5 4 3 3 2 2 2 3 3 4 5 6 8 9 10 11 12 13 14 14 15 16 17 18 19 20 21 22 23 23 24 25 26 26 27 27 28 29 30 31 32 33 34 35 36 37 38
5 5 4 4 4 4 4 5 6 6 7 8 9 10 11 12 12 13 13 14 14 15 16 17 18 19 20 21 22 23 24 24 25 26 27 27 28 29 30 31 32 33 34 35 36 37 39 40 41
5 5 6 7 7 7 7 8 9 10 11 11 12 12 13 13 13 13 14 14 15 16 17 18 19 20 21 22 23 24 24 25 26 27 28 29 30 31 32 33 34 35 36 37 38 39 41 42 44
7 8 9 9 10 10 11 11 12 13 13 13 13 13 14 14 14 14 14 15 16 17 18 19 20 21 21 22 23 24 25 26 27 28 29 30 31 32 33 34 35 36 38 39 40 42 43 45 46
10 10 11 11 12 12 13 13 13 14 14 14 13 13 13 14 14 14 15 15 16 17 18 19 20 21 22 23 24 25 25 26 27 28 29 30 31 32 33 35 36 38 39 41 42 44 45 47 49
12 12 12 13 13 14 14 14 14 14 14 14 13 13 13 14 14 14 15 16 16 17 18 19 20 21 22 23 24 24 25 26 27 28 29 30 31 32 34 36 38 39 41 42 44 46 47 49 51
13 13 13 14 14 14 14 15 14 14 14 14 13 12 13 13 14 15 15 16 16 17 18 19 20 21 22 22 23 24 25 26 27 28 29 31 32 34 35 37 39 40 42 44 45 47 49 51 53
14 13 14 14 15 14 14 15 15 14 14 13 13 13 13 13 14 15 15 15 16 17 18 18 19 20 21 22 23 25 26 27 28 30 31 32 34 35 37 38 40 42 43 45 47 49 50 53 55
15 14 14 14 15 14 14 14 14 14 13 13 13 13 13 13 14 14 15 15 16 17 17 18 19 20 22 23 24 26 27 29 30 31 33 34 35 37 38 40 42 43 45 47 48 50 52 55 57
15 14 14 14 14 14 13 13 12 13 12 12 12 12 12 13 13 14 15 15 16 16 17 18 20 21 23 24 26 27 29 30 32 33 34 36 37 38 40 41 43 45 47 48 50 52 54 57 59
15 15 15 14 14 14 13 12 11 12 10 11 11 11 12 13 13 14 15 15 16 17 18 19 21 22 24 25 27 29 30 32 33 35 36 38 39 41 42 43 45 47 48 50 52 54 56 59 61
16 15 15 15 14 14 13 11 11 11 11 11 11 11 11 12 13 14 15 15 16 18 19 20 21 23 24 26 28 30 32 33 35 36 38 39 41 42 44 45 46 48 50 52 54 56 58 61 63
17 16 16 15 15 14 14 12 12 12 12 11 11 11 12 12 13 14 15 16 17 19 20 21 22 23 25 26 28 30 33 35 36 38 39 41 42 44 45 47 48 50 52 54 56 58 61 63 65
18 18 17 17 16 15 15 13 15 13 13 13 13 13 13 14 15 15 16 18 19 20 22 23 24 25 26 27 29 31 34 36 38 39 41 42 43 45 47 48 50 52 54 56 58 60 63 65 67
20 19 19 19 18 17 16 15 16 15 15 15 15 15 15 16 17 18 18 20 21 22 24 25 26 27 28 30 31 33 36 38 40 41 43 44 45 47 48 50 51 53 56 59 61 63 65 67 69
22 21 21 21 21 20 18 17 18 18 17 17 17 17 18 18 19 20 21 22 23 25 26 27 28 29 31 32 34 36 38 40 42 44 45 47 48 49 50 51 53 55 58 61 63 65 67 70 72
23 23 23 23 23 23 21 19 20 20 19 19 20 20 20 21 22 23 24 25 26 28 29 30 31 32 34 35 37 38 40 42 44 46 47 49 50 51 52 54 56 58 60 63 65 67 70 72 75
24 25 25 25 25 25 24 21 21 22 21 21 21 22 23 23 24 25 26 28 29 30 32 33 34 35 37 38 39 41 43 45 47 48 50 51 52 53 54 56 58 60 62 65 67 70 72 74 77
25 27 27 27 27 27 27 25 20 23 22 22 23 24 25 26 26 27 29 30 32 33 34 36 37 38 40 41 42 44 46 47 49 51 52 53 54 56 57 58 60 62 65 67 69 72 74 76 78
27 28 29 29 29 28 27 29 20 23 23 24 25 26 27 28 29 30 31 33 34 36 37 39 40 41 43 44 46 47 49 50 52 53 55 55 56 58 59 60 62 64 67 69 71 73 75 77 78
29 30 31 30 30 30 28 30 25 24 25 26 27 27 28 30 31 32 34 36 38 39 41 42 44 45 46 48 49 50 52 53 54 55 57 57 58 59 61 62 64 66 68 70 72 74 76 78 79
30 31 33 33 31 30 30 30 26 26 26 27 28 29 31 32 34 35 37 39 41 43 44 46 47 48 50 51 51 53 54 55 56 57 58 59 60 61 62 64 66 68 69 71 73 75 76 77 78
29 31 33 35 35 33 32 31 26 27 28 30 31 32 34 35 37 39 41 43 45 46 48 49 50 51 53 53 54 55 56 57 58 59 60 60 62 63 64 66 67 68 70 72 73 75 76 77 77
31 30 32 36 38 37 35 33 28 26 29 31 32 35 37 40 42 44 45 46 48 49 51 52 53 54 55 56 57 57 58 59 59 60 61 63 63 64 66 68 68 69 71 73 74 75 76 76 76
32 33 34 36 40 41 39 35 31 28 29 31 35 39 41 43 45 47 48 50 51 52 53 54 55 56 57 57 58 58 59 60 61 62 63 64 65 66 68 69 69 70 72 73 74 74 75 75 75
33 33 35 37 39 42 44 39 33 33 34 37 39 42 45 47 49 51 52 53 54 54 55 55 56 57 58 59 60 60 61 62 63 63 64 65 66 67 68 69 70 71 72 72 73 73 74 73 73
34 35 36 38 41 43 46 44 36 37 38 41 44 46 49 51 52 53 54 54 55 55 56 56 57 58 59 60 61 61 61 62 63 64 65 66 67 68 69 69 69 70 71 71 72 72 72 72 71

GEFSSGP_500_meanwind_072.txt.gz
Wind_Speed
10 9 8 7 6 5 4 3 3 3 3 3 3 2 2 1 1 2 3 4 4 5 6 7 7 8 9 10 10 11 12 13 14 15 16 17 17 18 19 19 19 20 20 20 20 21 21 21 22
9 8 7 6 5 5 4 3 3 2 2 2 1 0 1 2 3 4 5 6 7 8 8 9 9 10 11 12 13 13 14 15 15 16 17 18 18 19 20 20 21 21 21 22 22 23 23 24 24
8 7 6 5 4 3 2 2 1 1 1 1 2 3 4 5 6 7 8 9 9 10 10 11 11 12 13 14 14 15 15 16 16 17 18 19 19 20 20 21 22 22 23 24 24 25 25 26 26
6 5 4 3 2 2 2 2 2 3 3 4 5 7 7 8 9 10 10 11 11 12 12 12 13 13 14 15 15 16 16 16 17 18 18 19 19 20 21 22 22 23 24 24 25 26 27 27 28
5 4 4 4 4 4 4 5 6 6 7 7 8 10 10 11 11 12 12 12 13 13 13 13 14 14 15 15 15 15 16 17 17 18 19 19 20 20 21 22 22 23 24 24 25 26 27 28 29
6 6 6 6 7 7 7 8 9 9 9 10 10 11 12 12 12 13 13 13 13 13 13 14 14 14 14 14 15 15 16 17 17 18 18 19 19 20 21 21 22 22 23 24 25 26 27 28 29
7 8 9 9 9 10 10 10 10 11 11 12 12 12 13 12 12 12 13 13 13 13 13 13 13 13 13 14 15 15 16 17 17 18 18 19 19 20 20 21 22 23 24 25 26 27 27 28 29
9 10 11 11 11 11 12 11 11 12 12 12 12 12 12 12 12 12 12 12 12 12 12 12 12 13 13 14 15 15 16 16 17 18 18 19 20 21 22 23 24 25 26 27 27 28 29 29 30
11 11 12 12 11 12 13 12 12 12 12 12 12 12 12 12 12 11 11 12 12 12 12 12 12 12 13 13 14 15 16 17 18 19 20 21 22 23 24 25 26 27 28 29 30 30 31 32 33
12 13 13 13 12 12 13 12 12 12 12 12 12 12 11 11 11 11 11 11 11 11 11 12 12 12 13 13 14 15 17 18 19 21 22 23 24 25 27 28 29 30 31 32 33 34 35 35 36
13 14 14 14 13 13 13 12 12 12 12 11 11 11 11 11 11 11 11 11 11 11 11 12 12 12 13 14 15 17 18 19 20 21 23 24 25 26 28 29 31 32 33 34 35 36 37 38 39
14 15 15 15 15 14 13 13 12 13 12 10 11 11 11 10 10 10 10 10 11 11 12 12 13 14 14 15 17 17 18 19 20 22 23 25 26 28 29 31 32 34 35 36 37 38 39 40 41
16 16 16 16 16 15 14 14 13 15 12 11 12 11 12 12 11 11 11 11 12 12 13 13 14 15 16 17 18 19 20 21 22 24 25 27 28 29 31 33 34 36 37 38 39 40 41 42 44
17 17 18 18 18 16 15 15 16 16 13 13 13 13 13 13 12 12 12 13 13 13 14 14 15 17 18 19 20 21 22 24 25 26 28 29 31 32 34 35 37 38 40 41 42 42 43 44 45
19 19 19 20 19 18 16 15 19 16 16 16 15 15 15 15 15 15 15 15 15 15 15 16 17 19 20 21 23 24 25 26 28 29 30 32 33 35 36 38 39 41 42 44 45 45 46 47 48
20 20 20 21 21 20 18 14 22 19 17 17 18 17 17 17 17 18 18 17 18 18 18 19 20 21 22 24 25 27 28 30 31 32 33 35 36 38 39 41 43 44 45 47 48 49 49 49 50
21 21 21 23 23 21 20 15 21 23 20 19 19 19 19 19 19 20 20 20 20 21 22 22 23 24 25 27 28 30 31 33 34 36 37 38 39 41 42 44 46 47 48 50 51 52 52 52 52
22 22 22 24 24 23 21 18 20 26 23 21 21 21 21 21 22 23 22 23 23 24 25 26 26 28 29 30 31 33 34 36 37 39 40 41 42 44 45 47 49 50 51 52 54 54 54 54 55
23 23 23 24 25 24 22 20 22 25 26 24 23 23 23 24 25 25 24 25 26 27 28 29 30 31 32 33 34 35 37 39 41 42 43 45 46 47 49 50 52 53 53 55 56 56 56 57 57
24 25 25 25 26 26 23 21 24 25 26 25 24 25 25 25 27 27 27 28 29 30 31 32 32 34 35 36 38 38 40 42 44 46 47 48 49 51 52 53 54 55 56 57 58 58 59 60 59
25 26 26 26 26 26 24 18 22 24 25 25 25 26 26 27 28 29 29 30 31 32 34 34 35 37 38 40 41 42 44 45 47 49 50 52 53 54 54 55 56 57 58 60 60 60 60 61 60
25 27 27 27 27 25 25 21 20 22 25 25 26 27 28 29 30 31 32 33 34 35 36 37 38 40 41 43 44 46 47 48 50 52 53 55 56 57 57 57 58 59 61 62 62 62 62 62 61
26 27 27 27 26 25 25 24 21 22 24 26 27 28 30 31 32 33 34 35 36 37 38 40 41 43 44 46 47 49 50 52 54 55 56 57 58 58 59 59 60 62 62 63 63 63 63 62 62
27 28 28 28 27 25 25 24 23 23 24 25 27 29 30 32 34 36 37 38 39 40 41 42 44 45 47 48 50 51 53 54 56 56 57 58 59 59 60 61 63 63 63 64 64 64 63 63 62
28 29 31 30 28 27 25 25 24 26 26 27 29 30 32 33 35 37 38 40 41 43 44 45 46 47 49 50 52 53 55 56 57 58 59 60 60 60 62 64 64 64 64 64 65 65 64 63 63
28 29 31 33 32 30 27 25 25 28 28 30 31 32 34 34 36 37 39 41 43 44 45 47 48 49 50 52 53 54 56 57 58 59 60 60 61 62 63 64 65 65 65 65 66 65 65 64 64
29 30 32 34 36 35 32 28 25 28 30 32 35 36 36 36 37 39 40 42 43 45 46 47 49 50 51 52 53 55 56 57 58 59 60 60 61 62 64 64 65 65 65 66 66 65 64 64 64
30 32 34 35 38 40 38 33 30 31 32 34 37 39 39 39 40 41 42 43 45 46 47 49 50 51 52 53 54 55 56 57 58 59 60 61 62 63 64 65 66 66 66 67 67 65 65 64 64
32 33 35 37 39 41 44 40 34 35 36 39 41 42 42 42 42 42 43 44 46 47 48 49 50 51 52 53 54 55 56 57 58 59 61 62 62 63 65 66 66 66 66 67 66 65 65 63 63
34 35 36 38 40 42 46 45 36 38 43 46 47 46 45 45 45 45 45 46 47 48 48 49 50 50 51 52 53 54 55 57 58 59 60 61 62 63 64 64 65 64 64 64 64 63 62 62 62

GEFSSGP_500_meanwind_078.txt.gz
Wind_Speed
7 7 6 5 4 3 4 4 2 2 2 2 2 2 2 2 2 3 3 3 4 5 6 7 8 9 10 10 11 12 13 14 15 15 15 15 15 16 16 16 16 16 16 16 17 18 18 19 19
7 6 5 4 3 3 4 3 3 3 3 3 3 3 4 4 5 5 5 6 6 7 9 9 10 11 11 12 13 14 15 15 16 16 16 16 16 16 16 16 17 17 17 17 18 18 19 19 20
6 5 4 4 3 4 4 4 4 4 5 5 6 6 7 6 8 8 8 9 9 9 10 11 11 12 13 14 14 15 15 15 15 15 15 15 16 16 16 17 17 17 17 18 18 19 19 20 21
5 4 4 4 4 4 5 6 6 6 7 8 9 9 9 10 10 11 11 11 11 11 12 13 13 13 14 14 15 15 15 15 15 15 15 15 15 15 16 16 16 17 17 18 18 19 19 20 21
5 5 5 5 6 6 7 7 8 9 9 11 12 12 11 14 12 13 13 13 13 13 13 14 13 14 14 15 15 14 14 14 14 14 14 14 15 15 15 15 16 16 17 17 18 19 20 20 21
7 8 8 8 8 8 9 9 10 11 12 13 13 14 12 16 14 14 14 14 14 13 13 14 14 14 14 14 14 13 13 13 13 13 13 14 14 14 15 15 16 17 17 18 19 20 21 22 23
9 10 10 10 10 11 12 11 12 13 14 15 14 15 13 16 15 15 15 14 14 14 14 14 14 14 14 14 13 13 13 13 13 13 13 14 14 15 16 16 17 18 19 20 21 21 22 23 24
10 11 12 12 12 12 13 12 13 14 15 16 16 15 13 16 16 15 15 15 15 15 14 15 15 14 14 14 13 13 13 13 13 13 14 14 15 16 17 18 19 20 20 21 22 23 24 25 26
11 12 13 13 13 13 14 14 14 14 15 15 16 14 14 15 16 16 16 15 15 15 15 14 15 14 14 14 13 13 13 13 13 14 14 15 16 17 18 19 20 21 22 22 23 24 25 26 27
13 13 14 15 14 14 15 15 15 14 16 16 15 14 14 15 16 16 16 16 16 16 16 15 14 15 14 14 14 14 14 14 14 15 15 16 17 18 19 20 21 22 23 24 25 26 27 28 29
14 15 15 16 16 16 15 16 16 16 16 16 14 15 15 16 16 16 16 16 16 16 16 16 15 15 15 15 15 15 16 16 16 17 17 18 19 20 21 22 23 24 25 27 28 29 30 31 31
16 16 16 17 17 17 17 17 17 18 18 16 16 16 15 17 17 17 17 17 17 17 18 17 17 17 17 17 17 18 18 19 19 19 20 21 22 23 24 25 26 27 28 30 31 32 33 34 35
18 18 18 18 18 18 18 19 18 20 20 18 18 18 17 18 18 18 18 19 19 19 19 19 19 19 19 19 20 20 20 21 22 22 23 24 25 26 27 28 30 31 32 33 34 35 36 37 38
20 19 19 20 20 20 19 19 21 21 21 20 20 20 19 19 20 20 21 21 21 21 21 21 22 22 22 22 23 23 23 24 25 26 26 27 29 30 31 32 33 34 35 36 37 38 40 41 42
22 21 21 21 22 21 20 18 23 24 22 21 21 21 21 21 22 22 23 23 23 24 24 24 25 25 25 26 26 26 27 27 28 29 30 31 32 33 34 35 36 37 39 40 41 42 44 45 46
23 22 22 23 21 21 22 19 25 26 24 22 22 23 23 23 24 25 25 26 26 26 26 26 27 27 28 29 29 30 30 30 31 32 34 35 36 37 38 39 40 41 42 44 45 46 47 48 49
23 22 22 24 23 21 21 21 25 27 26 24 24 25 25 24 25 26 27 27 28 28 28 28 29 30 31 32 32 33 33 34 35 36 37 38 40 41 41 42 44 45 46 47 49 50 51 52 52
21 21 21 22 24 23 23 23 24 26 26 26 25 26 25 26 26 27 28 29 29 30 30 31 32 33 34 34 35 35 36 37 38 39 40 41 43 44 45 46 47 49 50 51 52 53 54 55 55
20 20 20 21 22 22 23 25 24 25 25 25 25 25 25 25 27 27 27 29 31 31 32 33 34 35 37 37 37 38 39 40 40 41 42 44 45 47 49 50 51 52 53 54 55 57 57 58 58
19 20 20 20 22 21 21 24 25 25 25 25 25 25 25 25 26 27 28 29 31 32 34 35 36 37 38 39 40 40 41 42 43 44 45 47 49 50 52 53 54 55 56 57 58 59 60 60 61
19 20 20 20 20 21 21 23 25 25 25 25 25 25 26 26 26 27 28 29 31 32 34 35 37 38 39 41 42 42 43 44 45 47 48 50 52 53 54 55 57 58 59 60 60 61 62 63 63
19 20 21 21 21 20 21 21 25 26 25 25 25 25 26 26 27 28 29 30 31 33 34 35 37 39 40 42 43 44 45 46 47 49 51 52 54 55 57 58 59 60 61 62 62 63 64 65 65
20 21 21 22 22 21 21 21 23 26 26 26 26 26 26 27 27 28 29 31 32 33 35 36 38 40 41 43 45 46 47 49 51 52 53 54 56 57 59 60 61 62 63 64 65 65 66 65 65
21 22 23 23 23 22 21 22 22 25 27 29 29 29 28 28 28 29 31 32 33 34 36 38 40 42 44 45 47 48 50 51 53 54 56 57 58 59 60 61 62 63 64 65 66 66 66 65 64
22 24 25 26 25 25 24 24 24 27 29 31 32 32 31 31 31 31 32 33 35 36 38 40 42 44 46 48 49 51 52 54 55 56 58 59 60 61 62 63 63 64 65 66 66 66 66 64 63
24 25 26 28 28 27 25 25 25 28 31 33 35 35 34 33 32 33 34 36 37 39 41 42 44 46 48 49 51 52 54 55 56 58 60 61 63 63 64 64 64 65 65 66 66 66 64 63 63
25 26 27 30 31 32 30 28 26 28 32 36 38 38 36 34 34 35 36 38 40 41 43 44 46 47 49 51 52 54 55 57 58 59 61 61 62 63 64 64 64 64 64 63 63 63 62 62 62
27 28 29 31 33 36 34 32 30 32 34 36 38 39 38 37 37 38 39 40 41 42 43 45 47 48 50 52 53 55 56 58 58 59 60 60 61 62 63 64 63 62 61 60 61 61 61 62 62
27 28 30 32 33 36 37 33 31 33 34 36 38 38 38 37 38 38 39 40 41 42 43 45 46 48 49 51 52 54 55 57 58 58 59 60 60 61 62 62 61 60 59 60 61 61 62 63 63
29 29 30 32 33 35 37 35 32 34 37 38 38 38 37 37 38 38 39 41 42 43 44 45 46 47 49 50 51 53 54 55 56 57 58 58 59 59 59 60 60 60 60 60 61 61 62 63 63

GEFSSGP_500_meanwind_084.txt.gz
Wind_Speed
6 5 5 4 4 3 3 2 2 2 3 2 2 1 0 1 1 2 3 4 5 5 6 7 7 7 8 8 9 9 10 11 12 13 14 14 15 15 15 15 16 16 16 16 16 16 16 16 16
6 5 5 4 4 4 3 1 1 1 2 1 1 0 1 2 3 3 5 5 6 6 7 8 8 9 9 9 10 11 12 13 13 14 14 14 14 14 14 15 15 16 16 16 16 16 16 16 17
6 6 6 5 5 5 3 2 2 1 1 1 1 2 4 5 4 5 6 7 8 8 9 9 10 10 10 11 11 12 13 13 13 13 13 13 13 14 14 14 15 15 15 16 16 16 16 16 16
5 6 6 6 7 6 6 5 4 3 3 3 3 4 6 7 6 7 8 9 10 10 10 10 11 11 11 11 12 12 13 13 13 13 13 13 13 13 14 14 14 14 15 15 15 15 15 16 16
5 6 7 7 8 8 7 6 6 6 6 6 6 6 8 9 8 8 9 11 11 12 11 11 11 11 11 12 12 12 12 12 13 13 13 13 13 13 13 13 13 14 14 14 15 15 16 16 17
6 7 8 9 9 9 8 7 7 7 8 8 8 9 10 12 11 9 10 11 12 13 12 12 12 12 12 12 12 12 12 12 12 13 13 13 13 13 13 13 13 14 14 15 15 16 16 17 18
7 8 9 9 10 10 9 9 9 9 9 9 10 10 12 14 12 11 11 12 13 13 13 13 12 13 13 13 12 12 12 12 12 13 13 13 13 13 14 14 14 14 15 15 16 16 17 18 18
9 9 10 9 10 11 10 10 11 11 11 11 10 10 12 14 13 12 11 12 13 14 14 13 13 13 13 13 13 13 13 13 13 13 14 14 14 14 14 14 14 15 15 16 16 17 18 19 19
10 11 11 11 11 11 12 11 12 12 13 12 9 10 12 14 14 13 12 12 13 14 14 14 14 14 14 14 14 14 14 14 14 14 15 15 15 15 15 15 15 16 16 17 18 18 19 20 21
13 13 13 13 12 13 13 13 12 13 15 14 10 11 13 14 15 14 14 13 14 15 15 15 15 15 15 15 15 15 15 16 16 16 16 16 16 16 17 17 17 18 18 19 20 21 21 22 23
15 15 15 15 15 14 15 15 15 14 15 15 13 13 14 15 16 15 15 15 15 16 17 17 17 17 17 17 17 17 17 18 18 18 18 18 19 19 19 20 20 21 22 22 23 24 25 26 27
17 18 17 17 17 16 16 17 17 18 17 16 15 14 15 17 17 17 17 17 17 17 19 19 18 18 19 19 19 20 20 20 20 20 21 21 22 22 23 23 24 25 26 26 27 28 29 29 30
20 20 20 19 19 18 18 18 19 20 18 17 16 16 16 18 19 19 19 19 19 19 20 21 21 21 21 22 22 22 23 23 23 24 24 25 25 26 27 27 28 29 29 30 31 32 32 33 34
21 21 21 20 19 19 19 21 21 19 18 18 18 18 18 18 20 21 21 22 22 22 22 22 23 24 24 24 25 25 26 26 27 27 28 28 29 30 31 31 32 33 33 34 35 35 36 37 38
21 21 21 20 20 19 20 22 22 19 18 18 19 19 19 19 20 21 22 23 23 23 24 24 25 25 26 27 28 28 29 29 30 31 31 32 33 33 34 35 36 37 37 38 39 39 40 41 42
20 20 20 20 19 19 19 21 24 20 18 18 19 19 19 19 20 21 22 23 23 24 25 26 26 27 28 29 30 31 32 32 33 34 35 36 37 37 38 38 39 40 41 42 43 44 44 45 46
19 18 18 19 18 18 19 19 22 20 19 19 19 19 18 19 20 21 22 23 23 24 25 26 27 28 29 30 32 33 34 35 36 37 38 39 40 41 42 42 43 44 45 46 47 47 48 49 50
16 16 17 18 17 17 18 17 18 19 18 18 18 18 18 18 19 20 21 22 23 24 24 26 28 29 30 31 32 34 35 36 38 39 40 41 43 44 45 45 46 48 48 49 50 51 52 53 54
15 15 16 17 16 16 17 17 17 18 18 18 18 18 18 18 18 19 20 22 23 24 25 26 27 29 31 32 33 34 35 37 38 40 41 43 45 46 48 48 49 51 52 53 54 55 55 56 58
14 14 15 15 17 16 17 17 16 16 17 17 18 18 18 18 18 19 20 21 22 24 25 26 27 29 31 33 34 35 36 37 39 40 42 45 47 48 50 51 52 53 54 55 56 58 59 59 61
15 14 14 13 15 17 18 18 16 16 17 17 18 18 19 19 19 20 20 22 23 24 25 27 28 30 32 34 35 36 37 38 40 42 45 47 48 50 51 53 54 56 57 58 59 60 61 62 63
15 15 14 13 14 16 18 20 18 17 17 18 18 18 19 19 20 21 22 23 25 26 27 29 30 31 33 35 36 38 39 40 42 45 46 48 50 51 53 55 56 58 59 60 61 63 63 65 65
15 16 15 15 15 16 18 20 21 19 18 18 18 19 20 21 22 23 25 26 27 28 29 30 31 33 34 36 38 40 41 43 45 47 48 50 52 54 55 56 58 59 60 61 63 64 66 67 67
16 17 17 17 16 16 17 18 21 21 21 21 20 20 21 22 23 25 26 28 29 30 31 31 33 34 35 37 39 41 42 44 46 47 49 51 53 55 56 58 60 61 62 63 65 66 67 67 67
18 18 19 18 17 17 18 19 21 23 23 23 23 23 23 23 24 25 27 28 29 30 31 32 33 34 35 36 38 40 41 43 45 47 49 51 53 55 57 59 60 61 63 64 65 66 66 67 67
19 20 20 21 20 18 19 20 22 24 25 25 25 24 24 24 24 25 26 28 29 30 31 32 33 34 35 37 38 40 41 43 45 47 49 51 52 54 56 58 60 61 63 64 65 65 65 66 66
21 21 22 23 23 22 20 20 23 25 25 25 25 24 24 24 25 26 27 28 29 31 32 34 35 36 38 39 40 42 43 45 47 49 50 52 54 55 57 59 60 62 63 65 65 65 65 65 66
23 23 24 25 26 25 22 20 23 25 25 25 25 24 25 26 27 29 30 31 32 33 35 36 37 38 40 41 43 45 47 49 50 52 54 55 57 59 60 61 62 63 64 64 65 65 65 66 66
24 25 25 26 27 28 26 20 23 24 25 25 26 26 28 29 30 31 32 33 34 36 38 39 41 43 44 46 48 50 52 53 55 56 58 59 60 61 62 63 64 64 65 65 66 65 66 66 66
26 25 26 27 28 27 26 20 22 24 26 27 28 29 30 32 33 33 35 36 38 40 42 44 46 48 50 52 54 55 57 59 60 61 62 63 64 64 65 65 66 66 66 66 67 67 67 66 66

GEFSSGP_500_meanwind_090.txt.gz
Wind_Speed
6 6 6 6 5 4 4 3 3 3 2 2 3 3 4 5 5 5 6 7 7 8 8 9 9 10 10 11 11 11 12 12 12 12 13 13 13 13 13 13 13 13 13 13 14 14 14 15 15
6 6 6 5 5 4 3 3 3 3 3 3 3 3 4 4 5 6 6 7 8 8 9 9 10 11 11 11 12 12 13 13 13 13 13 13 13 13 13 13 13 13 13 13 13 14 14 15 15
5 6 6 5 5 4 4 4 3 4 4 4 5 5 5 5 6 7 8 9 9 10 10 11 11 12 12 12 13 13 14 14 14 14 14 13 13 13 13 12 12 12 12 12 13 13 14 14 14
5 5 5 5 5 5 5 5 4 5 5 6 6 7 7 7 8 8 9 10 11 11 12 12 13 13 14 14 14 14 14 15 14 14 13 13 13 13 13 12 12 12 13 13 13 13 13 14 14
5 6 6 6 5 5 5 6 6 6 7 7 8 9 9 9 9 9 10 11 12 13 13 14 14 14 15 15 15 15 15 15 14 14 14 13 13 13 13 13 13 13 13 13 13 13 13 14 14
6 6 7 7 7 6 6 6 7 8 8 9 9 10 12 11 10 11 12 13 13 14 14 15 15 15 16 16 16 16 15 15 15 14 14 14 14 13 14 13 13 13 14 14 14 14 15 15 15
8 8 8 8 8 8 8 8 9 9 9 10 10 11 13 12 11 12 13 14 15 15 15 15 16 16 16 16 17 17 16 16 15 15 15 15 14 14 14 14 14 15 15 15 15 16 16 16 17
11 11 11 10 10 11 10 10 11 11 11 11 10 11 13 13 13 13 14 15 15 16 16 16 17 17 18 18 18 18 17 17 17 16 16 16 16 16 16 16 16 16 16 16 17 17 17 17 18
13 13 13 12 12 13 12 12 12 12 13 12 11 11 12 14 14 15 15 16 16 17 17 17 18 18 18 19 19 18 18 18 18 18 18 18 18 18 18 18 18 18 18 18 19 19 19 20 20
16 16 16 15 14 14 15 14 14 14 15 14 12 12 13 15 16 16 16 17 17 17 18 18 19 19 19 20 20 20 20 20 20 20 20 20 20 20 20 21 21 21 21 21 21 22 22 23 23
18 19 19 18 17 17 17 17 17 16 17 16 14 14 15 16 18 18 18 18 18 19 20 20 20 21 21 21 22 22 22 22 23 23 22 23 23 23 23 23 24 24 24 25 25 25 26 26 27
20 21 21 20 19 19 19 19 19 19 17 16 16 16 17 18 19 19 19 19 19 20 22 22 22 22 23 23 24 24 25 25 25 25 25 26 26 26 27 27 27 27 28 28 29 29 30 30 31
21 22 23 22 21 21 21 21 20 20 17 17 18 18 19 19 20 20 20 20 20 22 23 23 23 24 25 25 26 27 27 28 28 28 29 29 29 30 30 30 31 31 32 32 33 33 34 34 35
22 23 23 23 22 21 22 23 21 19 18 19 19 20 20 20 20 21 21 21 21 22 23 24 25 25 26 27 28 29 30 30 30 31 31 32 32 33 33 34 34 35 36 36 37 37 38 38 39
23 23 24 23 22 22 22 23 21 19 19 20 20 20 20 20 21 21 22 22 22 23 24 25 25 26 27 28 29 30 31 31 32 33 33 34 35 36 37 37 38 39 40 40 40 41 41 42 43
23 23 23 23 22 21 21 23 22 19 19 20 20 20 21 21 21 22 22 22 22 23 23 25 25 26 27 28 29 30 31 32 33 34 35 36 37 38 39 40 41 42 43 43 44 44 45 45 46
22 21 22 22 20 20 20 21 22 19 19 20 21 21 21 22 22 22 22 22 22 23 23 24 25 26 28 29 29 30 31 33 34 35 36 38 39 40 41 41 43 45 45 46 46 47 48 49 50
21 20 21 21 19 19 18 18 20 20 20 20 21 21 22 22 22 22 23 23 23 23 23 24 25 26 27 28 30 31 32 33 34 36 37 39 40 41 42 43 44 46 47 48 49 50 51 51 52
20 20 20 20 18 18 18 18 19 19 20 20 20 21 21 21 22 22 23 23 23 24 24 25 25 26 27 28 29 30 32 33 35 36 38 39 41 43 44 44 45 47 48 49 51 52 53 53 55
20 19 20 20 19 18 17 17 18 19 19 20 20 21 21 22 22 23 24 24 24 25 25 26 27 27 28 29 30 31 32 33 35 37 39 40 42 43 44 45 47 48 50 51 52 54 55 56 57
20 19 18 19 20 19 18 17 18 19 20 20 21 22 22 23 23 24 25 25 25 26 27 27 28 29 29 30 31 32 33 35 36 38 40 41 43 44 46 47 49 50 51 52 54 56 57 58 59
19 19 19 19 19 19 19 18 18 19 20 21 22 22 23 24 25 25 26 27 27 27 28 29 29 30 30 31 32 32 34 35 36 38 40 42 43 45 47 48 50 52 53 54 56 58 59 60 61
20 20 20 19 20 19 20 20 19 20 21 22 22 23 24 25 26 26 27 28 28 29 29 29 30 30 31 31 32 33 34 35 37 38 40 42 44 45 47 49 51 52 54 55 57 59 60 62 63
21 21 21 20 20 20 20 21 21 21 22 22 23 24 26 26 27 28 28 29 29 29 29 29 29 30 31 32 33 34 35 36 38 40 41 43 45 47 49 51 52 54 55 57 59 61 62 64 65
22 22 22 22 21 21 21 22 23 22 23 23 25 26 27 27 27 28 29 29 29 29 29 29 30 31 32 33 34 36 37 38 40 42 43 45 47 49 52 54 56 58 59 61 63 64 66 67 68
23 23 24 24 23 22 23 24 24 24 25 26 27 27 28 27 27 28 29 29 29 30 31 32 33 33 34 35 37 38 40 42 43 45 47 49 51 54 56 58 60 62 64 66 67 69 70 71 72
24 24 24 26 26 25 24 24 25 25 27 28 28 29 28 28 27 28 29 31 31 32 33 34 34 35 37 38 40 42 44 46 48 50 52 54 56 59 61 63 65 67 69 70 72 73 74 75 76
25 25 26 27 29 28 26 24 26 27 28 29 29 29 29 28 29 30 32 33 34 35 35 36 37 38 40 42 44 46 48 50 53 55 58 60 63 65 67 69 70 72 74 75 77 78 78 79 79
27 27 28 29 30 30 28 25 27 28 29 30 30 30 30 30 32 34 35 36 37 37 38 39 41 42 44 47 49 51 54 56 59 61 64 66 68 71 73 74 76 78 79 80 81 82 82 82 82
29 29 30 31 31 31 31 28 28 29 30 31 31 31 32 33 35 36 37 38 39 40 41 43 44 47 49 52 54 56 59 61 64 66 69 71 74 76 78 80 82 83 84 85 85 84 84 84 83

GEFSSGP_500_meanwind_096.txt.gz
Wind_Speed
6 6 6 5 5 4 3 2 2 2 2 2 3 4 5 7 8 10 11 12 12 12 12 12 13 13 13 14 14 14 14 15 15 15 16 16 17 17 17 18 18 18 18 18 18 18 18 19 19
6 5 5 4 4 3 2 2 2 2 2 2 3 4 4 6 7 8 9 10 11 11 11 12 12 13 13 13 14 14 14 15 15 16 16 17 17 17 17 17 17 17 17 17 17 17 17 18 18
4 4 4 3 3 2 1 2 2 2 2 3 3 4 5 6 7 8 9 10 11 11 12 12 12 12 13 13 14 14 15 15 16 16 16 17 17 17 17 17 17 16 16 16 16 16 16 17 17
2 2 2 2 2 2 2 2 3 3 3 4 5 6 6 7 8 9 10 11 12 12 13 13 13 14 14 14 15 15 16 16 16 16 17 17 17 17 17 17 16 16 16 16 16 16 16 16 16
1 1 2 2 2 3 3 3 4 4 5 5 6 8 8 8 9 10 11 12 13 14 14 15 15 16 16 16 16 16 16 17 17 17 17 17 17 17 17 16 16 16 16 16 16 16 16 16 16
3 3 4 4 4 5 5 5 5 5 6 6 7 9 10 10 10 12 13 14 14 15 15 16 16 17 17 17 17 17 18 18 18 18 18 18 18 17 17 17 17 17 17 17 17 16 16 16 16
6 6 6 6 7 6 6 7 7 7 7 8 8 10 11 11 11 12 14 15 15 16 16 17 17 18 18 19 19 19 19 19 19 19 19 19 19 18 18 18 18 18 18 18 18 17 17 18 18
9 9 8 8 8 8 8 8 8 9 9 9 9 10 12 13 13 13 14 15 16 16 17 18 18 19 19 20 20 20 20 20 20 20 20 20 20 20 20 20 19 19 19 19 19 19 19 19 19
12 12 11 10 10 11 11 11 11 11 12 12 11 12 13 14 15 16 16 16 16 17 17 18 19 20 20 21 21 21 21 22 22 22 22 22 22 22 22 22 22 21 21 21 21 21 21 21 21
14 14 14 13 12 13 13 13 13 13 14 14 13 14 15 16 17 18 18 17 17 17 18 19 20 20 21 21 22 23 23 23 23 24 24 24 24 24 24 24 24 24 24 24 24 24 24 24 25
16 16 16 15 14 15 16 15 15 15 15 15 16 17 18 18 19 19 19 19 19 19 19 20 21 21 22 22 23 24 24 25 25 26 26 26 27 27 27 27 27 27 27 27 27 28 28 28 28
18 18 18 17 16 16 17 18 17 17 16 17 18 18 19 19 20 20 20 20 20 20 20 21 21 22 23 23 24 25 26 27 27 28 28 28 29 29 30 30 30 30 31 31 31 31 31 32 32
19 19 19 18 18 18 19 19 19 19 18 18 19 19 19 19 20 20 20 20 20 21 21 21 22 23 23 24 25 26 27 28 28 29 30 30 31 31 32 32 33 33 34 34 34 34 35 35 36
19 20 20 19 19 19 20 20 20 20 19 20 20 19 19 19 19 19 20 20 20 21 21 22 23 23 24 25 26 26 27 28 29 30 31 31 32 33 34 34 35 35 36 36 36 37 38 38 39
20 20 20 20 20 20 20 20 19 20 20 20 19 19 19 19 19 19 20 20 20 21 21 21 22 23 24 25 26 26 27 28 29 30 30 31 32 33 34 35 36 37 37 38 38 39 40 41 42
21 21 21 20 19 19 20 20 19 20 19 19 19 19 19 19 19 19 19 19 20 20 20 21 22 23 24 24 25 26 27 28 29 30 31 32 33 33 34 35 36 37 38 39 39 41 42 43 44
20 21 20 19 19 19 19 20 19 19 18 18 19 19 19 19 19 19 19 19 19 19 20 21 21 22 23 24 25 26 27 28 29 30 31 32 32 33 34 35 36 38 38 39 40 41 43 44 45
20 20 20 20 19 19 19 20 20 19 19 19 19 19 19 19 19 19 19 19 19 20 20 21 22 23 24 24 25 26 27 28 29 30 31 32 33 34 34 35 36 38 38 40 41 42 44 45 46
20 20 19 19 18 18 19 20 20 19 19 19 19 19 19 19 19 20 20 20 20 21 21 22 23 24 25 25 26 27 28 29 30 31 32 33 33 34 35 36 37 39 39 41 42 44 45 46 48
20 20 20 19 18 19 19 19 19 19 19 19 19 20 20 20 20 20 21 21 22 22 23 24 24 25 25 26 27 27 28 29 30 31 32 33 34 35 36 37 38 39 40 41 43 45 46 47 49
20 20 20 19 19 19 19 19 19 19 19 20 20 20 21 21 21 21 22 23 24 24 25 25 25 26 26 26 27 28 29 30 31 31 32 33 34 36 37 38 39 41 42 43 45 47 48 50 51
21 21 20 20 19 18 19 19 19 19 20 20 21 21 21 22 22 23 24 24 25 26 26 26 26 26 27 27 28 29 30 30 31 32 33 34 36 37 39 40 42 43 45 46 48 50 52 53 54
22 21 20 19 19 19 19 20 19 19 20 21 21 22 22 23 23 24 25 26 27 27 27 26 26 26 27 27 28 29 30 31 32 33 35 36 38 39 41 43 45 46 48 49 51 53 55 57 59
21 21 20 20 20 19 19 20 19 19 21 22 22 23 23 24 25 26 26 27 28 27 27 27 27 27 27 28 29 31 32 33 34 35 37 38 40 42 44 45 47 49 51 53 56 58 60 62 64
21 21 21 21 20 20 19 20 20 20 22 23 24 24 24 25 26 27 27 28 28 28 28 28 28 29 30 31 32 33 34 35 36 38 39 41 43 45 47 49 51 53 56 58 61 63 65 68 70
21 21 22 22 22 21 20 21 21 21 23 24 25 25 26 26 27 27 28 28 28 29 29 29 30 31 32 34 35 36 37 38 39 40 42 44 46 49 51 53 55 58 60 63 65 68 70 72 74
22 22 22 23 23 22 21 21 21 22 24 25 26 26 27 27 28 28 29 29 30 30 31 31 32 34 35 36 37 38 39 40 42 44 46 48 50 52 55 57 60 62 65 68 70 72 75 77 79
23 22 23 24 24 23 22 21 22 23 25 26 27 27 28 29 29 30 30 31 32 32 33 34 35 36 37 38 39 41 42 44 46 48 50 53 55 57 59 62 65 67 70 73 75 77 79 81 83
24 24 24 25 25 25 24 22 23 25 26 27 28 28 29 30 31 32 33 33 34 35 36 37 38 39 40 41 42 44 46 48 50 52 54 57 59 62 64 67 70 72 75 77 79 81 83 84 85
25 25 25 26 26 26 26 24 25 27 28 29 30 30 32 33 34 34 35 36 37 38 38 39 40 41 42 44 46 47 49 51 54 56 59 61 64 66 69 72 74 76 79 81 82 84 85 85 85